Time,TemperatureF,DewpointF,PressureIn,WindDirection,WindDirectionDegrees,WindSpeedMPH,WindSpeedGustMPH,Humidity,HourlyPrecipIn,Conditions,Clouds,dailyrainin,SoftwareType,DateUTC
2013-03-30 00:02:00,32.5,17.3,0.00,ESE,102,0.0,0.0,53,0.00,,---,0.00,VWS V14.00,2013-03-30 06:02:00,
2013-03-30 00:03:00,32.5,17.3,0.00,ESE,102,0.0,0.0,53,0.00,,---,0.00,VWS V14.00,2013-03-30 06:03:00,
2013-03-30 00:07:00,32.5,17.3,0.00,ESE,102,0.0,0.0,53,0.00,,---,0.00,VWS V14.00,2013-03-30 06:07:00,
2013-03-30 00:08:00,32.5,17.3,0.00,ESE,102,0.0,0.0,53,0.00,,---,0.00,VWS V14.00,2013-03-30 06:08:00,
2013-03-30 00:12:00,32.4,17.1,0.00,East,101,0.0,0.0,53,0.00,,---,0.00,VWS V14.00,2013-03-30 06:12:00,
2013-03-30 00:13:00,32.4,17.1,0.00,East,93,0.0,2.7,53,0.00,,---,0.00,VWS V14.00,2013-03-30 06:13:00,
2013-03-30 00:17:00,32.4,17.6,0.00,East,93,0.0,0.0,54,0.00,,---,0.00,VWS V14.00,2013-03-30 06:17:00,
2013-03-30 00:18:00,32.5,17.8,0.00,East,93,0.0,0.0,54,0.00,,---,0.00,VWS V14.00,2013-03-30 06:18:00,
2013-03-30 00:22:00,32.5,17.3,0.00,East,99,0.0,0.0,53,0.00,,---,0.00,VWS V14.00,2013-03-30 06:22:00,
2013-03-30 00:23:00,32.5,17.8,0.00,East,99,0.0,0.0,54,0.00,,---,0.00,VWS V14.00,2013-03-30 06:23:00,
2013-03-30 00:27:00,32.5,17.8,0.00,East,99,0.0,0.0,54,0.00,,---,0.00,VWS V14.00,2013-03-30 06:27:00,
2013-03-30 00:28:00,32.5,17.8,0.00,East,99,0.0,0.0,54,0.00,,---,0.00,VWS V14.00,2013-03-30 06:28:00,
2013-03-30 00:32:00,32.5,17.3,0.00,ESE,118,0.0,0.0,53,0.00,,---,0.00,VWS V14.00,2013-03-30 06:32:00,
2013-03-30 00:33:00,32.5,17.3,0.00,ESE,118,0.0,0.0,53,0.00,,---,0.00,VWS V14.00,2013-03-30 06:33:00,
2013-03-30 00:38:00,32.5,17.8,0.00,ESE,118,0.0,0.0,54,0.00,,---,0.00,VWS V14.00,2013-03-30 06:38:00,
2013-03-30 00:43:00,32.5,17.8,0.00,ESE,119,3.1,3.1,54,0.00,,---,0.00,VWS V14.00,2013-03-30 06:43:00,
2013-03-30 00:44:00,32.5,17.8,0.00,ESE,119,0.0,0.0,54,0.00,,---,0.00,VWS V14.00,2013-03-30 06:44:00,
2013-03-30 00:48:00,32.5,17.8,0.00,ESE,104,0.0,0.0,54,0.00,,---,0.00,VWS V14.00,2013-03-30 06:48:00,
2013-03-30 00:49:00,32.7,17.9,0.00,ESE,104,0.0,0.0,54,0.00,,---,0.00,VWS V14.00,2013-03-30 06:49:00,
2013-03-30 00:53:00,32.7,17.9,0.00,SW,235,0.0,0.0,54,0.00,,---,0.00,VWS V14.00,2013-03-30 06:53:00,
2013-03-30 00:54:00,32.7,17.9,0.00,SW,234,0.0,0.0,54,0.00,,---,0.00,VWS V14.00,2013-03-30 06:54:00,
2013-03-30 00:58:00,32.7,18.4,0.00,SSW,203,0.0,0.0,55,0.00,,---,0.00,VWS V14.00,2013-03-30 06:58:00,
2013-03-30 00:59:00,32.7,18.4,0.00,SSW,207,0.0,0.0,55,0.00,,---,0.00,VWS V14.00,2013-03-30 06:59:00,
2013-03-30 01:03:00,32.7,18.4,0.00,SSW,213,0.0,0.0,55,0.00,,---,0.00,VWS V14.00,2013-03-30 07:03:00,
2013-03-30 01:04:00,32.7,18.4,0.00,SSW,213,0.0,0.0,55,0.00,,---,0.00,VWS V14.00,2013-03-30 07:04:00,
2013-03-30 01:08:00,32.7,18.4,0.00,SSW,213,0.0,0.0,55,0.00,,---,0.00,VWS V14.00,2013-03-30 07:08:00,
2013-03-30 01:09:00,32.7,18.4,0.00,SSW,213,0.0,0.0,55,0.00,,---,0.00,VWS V14.00,2013-03-30 07:09:00,
2013-03-30 01:13:00,32.7,18.4,0.00,SSW,213,0.0,0.0,55,0.00,,---,0.00,VWS V14.00,2013-03-30 07:13:00,
2013-03-30 01:14:00,32.7,18.4,0.00,SSW,213,0.0,0.0,55,0.00,,---,0.00,VWS V14.00,2013-03-30 07:14:00,
2013-03-30 01:18:00,32.7,18.4,0.00,SSW,207,0.0,0.0,55,0.00,,---,0.00,VWS V14.00,2013-03-30 07:18:00,
2013-03-30 01:19:00,32.5,18.2,0.00,SSW,213,0.0,0.0,55,0.00,,---,0.00,VWS V14.00,2013-03-30 07:19:00,
2013-03-30 01:23:00,32.5,18.2,0.00,SW,214,0.0,0.0,55,0.00,,---,0.00,VWS V14.00,2013-03-30 07:23:00,
2013-03-30 01:24:00,32.5,18.2,0.00,SW,214,0.0,0.0,55,0.00,,---,0.00,VWS V14.00,2013-03-30 07:24:00,
2013-03-30 01:28:00,32.5,18.2,0.00,SSW,206,0.0,0.0,55,0.00,,---,0.00,VWS V14.00,2013-03-30 07:28:00,
2013-03-30 01:29:00,32.5,18.2,0.00,SSW,213,0.0,0.0,55,0.00,,---,0.00,VWS V14.00,2013-03-30 07:29:00,
2013-03-30 01:30:00,32.5,18.2,0.00,SW,214,0.0,0.0,55,0.00,,---,0.00,VWS V14.00,2013-03-30 07:30:00,
2013-03-30 01:33:00,32.5,18.2,0.00,SSW,213,0.0,0.0,55,0.00,,---,0.00,VWS V14.00,2013-03-30 07:33:00,
2013-03-30 01:34:00,32.5,18.2,0.00,SW,214,0.0,0.0,55,0.00,,---,0.00,VWS V14.00,2013-03-30 07:34:00,
2013-03-30 01:35:00,32.5,18.2,0.00,SW,214,0.0,0.0,55,0.00,,---,0.00,VWS V14.00,2013-03-30 07:35:00,
2013-03-30 01:38:00,32.5,18.2,0.00,SSW,208,0.0,0.0,55,0.00,,---,0.00,VWS V14.00,2013-03-30 07:38:00,
2013-03-30 01:39:00,32.5,18.2,0.00,SW,214,0.0,0.0,55,0.00,,---,0.00,VWS V14.00,2013-03-30 07:39:00,
2013-03-30 01:40:00,32.5,18.2,0.00,SSW,211,0.0,0.0,55,0.00,,---,0.00,VWS V14.00,2013-03-30 07:40:00,
2013-03-30 01:43:00,32.4,17.6,0.00,SSE,162,0.0,0.0,54,0.00,,---,0.00,VWS V14.00,2013-03-30 07:43:00,
2013-03-30 01:44:00,32.4,17.6,0.00,SSE,162,0.0,0.0,54,0.00,,---,0.00,VWS V14.00,2013-03-30 07:44:00,
2013-03-30 01:45:00,32.4,17.6,0.00,SSE,163,0.0,0.0,54,0.00,,---,0.00,VWS V14.00,2013-03-30 07:45:00,
2013-03-30 01:49:00,32.4,17.6,0.00,SSE,163,0.0,0.0,54,0.00,,---,0.00,VWS V14.00,2013-03-30 07:49:00,
2013-03-30 01:50:00,32.4,17.6,0.00,SSE,157,0.0,0.0,54,0.00,,---,0.00,VWS V14.00,2013-03-30 07:50:00,
2013-03-30 01:54:00,32.2,17.8,0.00,West,272,0.0,0.0,55,0.00,,---,0.00,VWS V14.00,2013-03-30 07:54:00,
2013-03-30 01:55:00,32.2,17.8,0.00,West,272,0.0,0.0,55,0.00,,---,0.00,VWS V14.00,2013-03-30 07:55:00,
2013-03-30 01:59:00,32.2,17.8,0.00,West,272,0.0,0.0,55,0.00,,---,0.00,VWS V14.00,2013-03-30 07:59:00,
2013-03-30 02:00:00,32.2,17.8,0.00,West,272,0.0,0.0,55,0.00,,---,0.00,VWS V14.00,2013-03-30 08:00:00,
2013-03-30 02:04:00,32.2,17.8,0.00,West,274,0.0,0.0,55,0.00,,---,0.00,VWS V14.00,2013-03-30 08:04:00,
2013-03-30 02:05:00,32.2,17.8,0.00,West,274,0.0,0.0,55,0.00,,---,0.00,VWS V14.00,2013-03-30 08:05:00,
2013-03-30 02:09:00,32.2,17.8,0.00,NW,308,0.0,0.0,55,0.00,,---,0.00,VWS V14.00,2013-03-30 08:09:00,
2013-03-30 02:10:00,32.2,17.8,0.00,NW,308,0.0,0.0,55,0.00,,---,0.00,VWS V14.00,2013-03-30 08:10:00,
2013-03-30 02:14:00,32.2,17.8,0.00,NW,308,0.0,0.0,55,0.00,,---,0.00,VWS V14.00,2013-03-30 08:14:00,
2013-03-30 02:15:00,32.2,17.8,0.00,NW,308,0.0,0.0,55,0.00,,---,0.00,VWS V14.00,2013-03-30 08:15:00,
2013-03-30 02:19:00,32.0,17.7,0.00,NW,308,0.0,0.0,55,0.00,,---,0.00,VWS V14.00,2013-03-30 08:19:00,
2013-03-30 02:20:00,32.0,17.7,0.00,NW,308,0.0,0.0,55,0.00,,---,0.00,VWS V14.00,2013-03-30 08:20:00,
2013-03-30 02:21:00,32.0,17.7,0.00,NW,308,0.0,0.0,55,0.00,,---,0.00,VWS V14.00,2013-03-30 08:21:00,
2013-03-30 02:25:00,32.0,17.7,0.00,West,261,0.0,0.0,55,0.00,,---,0.00,VWS V14.00,2013-03-30 08:25:00,
2013-03-30 02:30:00,32.0,17.2,0.00,WSW,257,0.0,0.0,54,0.00,,---,0.00,VWS V14.00,2013-03-30 08:30:00,
2013-03-30 02:31:00,32.0,17.2,0.00,West,260,0.0,0.0,54,0.00,,---,0.00,VWS V14.00,2013-03-30 08:31:00,
2013-03-30 02:35:00,31.8,17.5,0.00,WSW,258,0.0,0.0,55,0.00,,---,0.00,VWS V14.00,2013-03-30 08:35:00,
2013-03-30 02:36:00,31.8,17.5,0.00,WSW,253,0.0,0.0,55,0.00,,---,0.00,VWS V14.00,2013-03-30 08:36:00,
2013-03-30 02:40:00,31.8,17.5,0.00,West,261,0.0,0.0,55,0.00,,---,0.00,VWS V14.00,2013-03-30 08:40:00,
2013-03-30 02:41:00,31.8,17.5,0.00,West,261,0.0,0.0,55,0.00,,---,0.00,VWS V14.00,2013-03-30 08:41:00,
2013-03-30 02:45:00,31.6,17.3,0.00,WSW,252,0.0,0.0,55,0.00,,---,0.00,VWS V14.00,2013-03-30 08:45:00,
2013-03-30 02:46:00,31.6,17.3,0.00,West,261,0.0,0.0,55,0.00,,---,0.00,VWS V14.00,2013-03-30 08:46:00,
2013-03-30 02:47:00,31.6,17.3,0.00,WSW,258,0.0,0.0,55,0.00,,---,0.00,VWS V14.00,2013-03-30 08:47:00,
2013-03-30 02:50:00,31.6,17.3,0.00,West,261,0.0,0.0,55,0.00,,---,0.00,VWS V14.00,2013-03-30 08:50:00,
2013-03-30 02:51:00,31.6,17.3,0.00,West,261,0.0,0.0,55,0.00,,---,0.00,VWS V14.00,2013-03-30 08:51:00,
2013-03-30 02:52:00,31.6,17.3,0.00,WSW,242,0.0,0.0,55,0.00,,---,0.00,VWS V14.00,2013-03-30 08:52:00,
2013-03-30 02:55:00,31.6,17.3,0.00,South,175,0.0,0.0,55,0.00,,---,0.00,VWS V14.00,2013-03-30 08:55:00,
2013-03-30 02:56:00,31.6,17.3,0.00,South,181,0.0,0.0,55,0.00,,---,0.00,VWS V14.00,2013-03-30 08:56:00,
2013-03-30 02:57:00,31.6,17.3,0.00,South,186,0.0,0.0,55,0.00,,---,0.00,VWS V14.00,2013-03-30 08:57:00,
2013-03-30 03:00:00,31.5,17.6,0.00,SSW,213,0.0,0.0,56,0.00,,---,0.00,VWS V14.00,2013-03-30 09:00:00,
2013-03-30 03:01:00,31.5,17.2,0.00,SSW,213,0.0,0.0,55,0.00,,---,0.00,VWS V14.00,2013-03-30 09:01:00,
2013-03-30 03:02:00,31.5,17.6,0.00,SSW,213,0.0,0.0,56,0.00,,---,0.00,VWS V14.00,2013-03-30 09:02:00,
2013-03-30 03:05:00,31.5,17.6,0.00,SSW,213,0.0,0.0,56,0.00,,---,0.00,VWS V14.00,2013-03-30 09:05:00,
2013-03-30 03:07:00,31.5,17.6,0.00,SSW,213,0.0,0.0,56,0.00,,---,0.00,VWS V14.00,2013-03-30 09:07:00,
2013-03-30 03:11:00,31.5,17.6,0.00,SSW,213,0.0,0.0,56,0.00,,---,0.00,VWS V14.00,2013-03-30 09:11:00,
2013-03-30 03:12:00,31.5,17.6,0.00,SSW,213,0.0,0.0,56,0.00,,---,0.00,VWS V14.00,2013-03-30 09:12:00,
2013-03-30 03:16:00,31.3,17.4,0.00,SW,214,0.0,0.0,56,0.00,,---,0.00,VWS V14.00,2013-03-30 09:16:00,
2013-03-30 03:17:00,31.3,17.4,0.00,WSW,243,0.0,0.0,56,0.00,,---,0.00,VWS V14.00,2013-03-30 09:17:00,
2013-03-30 03:18:00,31.3,17.4,0.00,WSW,243,0.0,0.0,56,0.00,,---,0.00,VWS V14.00,2013-03-30 09:18:00,
2013-03-30 03:21:00,31.3,17.4,0.00,WSW,243,0.0,0.0,56,0.00,,---,0.00,VWS V14.00,2013-03-30 09:21:00,
2013-03-30 03:23:00,31.3,17.4,0.00,WSW,244,0.0,0.0,56,0.00,,---,0.00,VWS V14.00,2013-03-30 09:23:00,
2013-03-30 03:26:00,31.3,17.4,0.00,WSW,245,0.0,0.0,56,0.00,,---,0.00,VWS V14.00,2013-03-30 09:26:00,
2013-03-30 03:28:00,31.1,17.2,0.00,WSW,244,0.0,0.0,56,0.00,,---,0.00,VWS V14.00,2013-03-30 09:28:00,
2013-03-30 03:32:00,31.1,17.2,0.00,WSW,244,0.0,0.0,56,0.00,,---,0.00,VWS V14.00,2013-03-30 09:32:00,
2013-03-30 03:33:00,31.1,17.2,0.00,WSW,244,0.0,0.0,56,0.00,,---,0.00,VWS V14.00,2013-03-30 09:33:00,
2013-03-30 03:34:00,31.1,17.2,0.00,WSW,245,0.0,0.0,56,0.00,,---,0.00,VWS V14.00,2013-03-30 09:34:00,
2013-03-30 03:38:00,31.1,17.2,0.00,WSW,245,0.0,0.0,56,0.00,,---,0.00,VWS V14.00,2013-03-30 09:38:00,
2013-03-30 03:39:00,31.1,17.2,0.00,WSW,245,0.0,0.0,56,0.00,,---,0.00,VWS V14.00,2013-03-30 09:39:00,
2013-03-30 03:43:00,31.1,16.8,0.00,WSW,241,0.0,0.0,55,0.00,,---,0.00,VWS V14.00,2013-03-30 09:43:00,
2013-03-30 03:44:00,31.1,16.8,0.00,WSW,237,0.0,0.0,55,0.00,,---,0.00,VWS V14.00,2013-03-30 09:44:00,
2013-03-30 03:48:00,30.9,16.7,0.00,WSW,244,0.0,0.0,55,0.00,,---,0.00,VWS V14.00,2013-03-30 09:48:00,
2013-03-30 03:49:00,30.9,16.7,0.00,WSW,243,0.0,0.0,55,0.00,,---,0.00,VWS V14.00,2013-03-30 09:49:00,
2013-03-30 03:53:00,30.9,16.7,0.00,SSW,194,0.0,0.0,55,0.00,,---,0.00,VWS V14.00,2013-03-30 09:53:00,
2013-03-30 03:54:00,30.7,16.5,0.00,SSW,194,0.0,0.0,55,0.00,,---,0.00,VWS V14.00,2013-03-30 09:54:00,
2013-03-30 03:58:00,30.7,16.5,0.00,SSW,208,0.0,0.0,55,0.00,,---,0.00,VWS V14.00,2013-03-30 09:58:00,
2013-03-30 03:59:00,30.7,16.5,0.00,SSW,209,0.0,0.0,55,0.00,,---,0.00,VWS V14.00,2013-03-30 09:59:00,
2013-03-30 04:03:00,30.6,16.3,0.00,SE,124,0.0,2.2,55,0.00,,---,0.00,VWS V14.00,2013-03-30 10:03:00,
2013-03-30 04:04:00,30.6,16.3,0.00,SE,129,0.0,0.0,55,0.00,,---,0.00,VWS V14.00,2013-03-30 10:04:00,
2013-03-30 04:08:00,30.6,16.3,0.00,SE,129,0.0,0.0,55,0.00,,---,0.00,VWS V14.00,2013-03-30 10:08:00,
2013-03-30 04:09:00,30.4,16.2,0.00,SE,129,0.0,0.0,55,0.00,,---,0.00,VWS V14.00,2013-03-30 10:09:00,
2013-03-30 04:14:00,30.4,16.2,0.00,SE,129,0.0,0.0,55,0.00,,---,0.00,VWS V14.00,2013-03-30 10:14:00,
2013-03-30 04:19:00,30.2,16.4,0.00,SE,129,0.0,0.0,56,0.00,,---,0.00,VWS V14.00,2013-03-30 10:19:00,
2013-03-30 04:24:00,30.0,16.2,0.00,SE,129,0.0,0.0,56,0.00,,---,0.00,VWS V14.00,2013-03-30 10:24:00,
2013-03-30 04:29:00,30.0,16.2,0.00,South,180,0.0,0.0,56,0.00,,---,0.00,VWS V14.00,2013-03-30 10:29:00,
2013-03-30 04:34:00,29.8,16.1,0.00,WSW,248,2.2,2.2,56,0.00,,---,0.00,VWS V14.00,2013-03-30 10:34:00,
2013-03-30 04:39:00,29.7,15.9,0.00,WSW,243,0.0,0.0,56,0.00,,---,0.00,VWS V14.00,2013-03-30 10:39:00,
2013-03-30 04:44:00,29.5,15.7,0.00,WNW,284,0.0,0.0,56,0.00,,---,0.00,VWS V14.00,2013-03-30 10:44:00,
2013-03-30 04:49:00,29.5,15.7,0.00,West,268,0.0,0.0,56,0.00,,---,0.00,VWS V14.00,2013-03-30 10:49:00,
2013-03-30 04:50:00,29.5,15.7,0.00,West,273,0.0,0.0,56,0.00,,---,0.00,VWS V14.00,2013-03-30 10:50:00,
2013-03-30 04:54:00,29.3,15.6,0.00,West,273,0.0,0.0,56,0.00,,---,0.00,VWS V14.00,2013-03-30 10:54:00,
2013-03-30 04:55:00,29.3,15.6,0.00,West,274,0.0,0.0,56,0.00,,---,0.00,VWS V14.00,2013-03-30 10:55:00,
2013-03-30 04:59:00,29.3,15.6,0.00,West,272,0.0,0.0,56,0.00,,---,0.00,VWS V14.00,2013-03-30 10:59:00,
2013-03-30 05:00:00,29.3,15.6,0.00,West,273,0.0,0.0,56,0.00,,---,0.00,VWS V14.00,2013-03-30 11:00:00,
2013-03-30 05:04:00,29.1,15.4,0.00,West,275,0.0,0.0,56,0.00,,---,0.00,VWS V14.00,2013-03-30 11:04:00,
2013-03-30 05:05:00,29.1,15.4,0.00,West,276,0.0,0.0,56,0.00,,---,0.00,VWS V14.00,2013-03-30 11:05:00,
2013-03-30 05:09:00,28.9,15.6,0.00,West,276,0.0,0.0,57,0.00,,---,0.00,VWS V14.00,2013-03-30 11:09:00,
2013-03-30 05:10:00,28.9,15.6,0.00,West,276,0.0,0.0,57,0.00,,---,0.00,VWS V14.00,2013-03-30 11:10:00,
2013-03-30 05:11:00,28.9,15.6,0.00,West,276,0.0,0.0,57,0.00,,---,0.00,VWS V14.00,2013-03-30 11:11:00,
2013-03-30 05:14:00,28.8,15.5,0.00,WNW,298,2.7,4.0,57,0.00,,---,0.00,VWS V14.00,2013-03-30 11:14:00,
2013-03-30 05:15:00,28.8,15.5,0.00,WNW,298,0.0,4.0,57,0.00,,---,0.00,VWS V14.00,2013-03-30 11:15:00,
2013-03-30 05:16:00,28.8,15.5,0.00,WNW,284,0.0,4.0,57,0.00,,---,0.00,VWS V14.00,2013-03-30 11:16:00,
2013-03-30 05:20:00,28.8,15.5,0.00,WSW,255,0.0,0.0,57,0.00,,---,0.00,VWS V14.00,2013-03-30 11:20:00,
2013-03-30 05:21:00,28.8,15.5,0.00,WSW,256,0.0,0.0,57,0.00,,---,0.00,VWS V14.00,2013-03-30 11:21:00,
2013-03-30 05:25:00,28.8,15.5,0.00,WSW,256,0.0,0.0,57,0.00,,---,0.00,VWS V14.00,2013-03-30 11:25:00,
2013-03-30 05:26:00,28.8,15.5,0.00,WSW,257,0.0,0.0,57,0.00,,---,0.00,VWS V14.00,2013-03-30 11:26:00,
2013-03-30 05:30:00,28.6,15.3,0.00,West,261,0.0,0.0,57,0.00,,---,0.00,VWS V14.00,2013-03-30 11:30:00,
2013-03-30 05:31:00,28.6,15.3,0.00,West,260,0.0,0.0,57,0.00,,---,0.00,VWS V14.00,2013-03-30 11:31:00,
2013-03-30 05:35:00,28.6,15.3,0.00,West,262,0.0,0.0,57,0.00,,---,0.00,VWS V14.00,2013-03-30 11:35:00,
2013-03-30 05:36:00,28.6,15.3,0.00,West,261,0.0,0.0,57,0.00,,---,0.00,VWS V14.00,2013-03-30 11:36:00,
2013-03-30 05:40:00,28.6,15.3,0.00,West,261,0.0,0.0,57,0.00,,---,0.00,VWS V14.00,2013-03-30 11:40:00,
2013-03-30 05:41:00,28.6,15.3,0.00,West,261,0.0,0.0,57,0.00,,---,0.00,VWS V14.00,2013-03-30 11:41:00,
2013-03-30 05:45:00,28.4,15.1,0.00,West,262,0.0,0.0,57,0.00,,---,0.00,VWS V14.00,2013-03-30 11:45:00,
2013-03-30 05:46:00,28.4,15.1,0.00,West,259,0.0,0.0,57,0.00,,---,0.00,VWS V14.00,2013-03-30 11:46:00,
2013-03-30 05:50:00,28.4,15.1,0.00,WNW,298,4.0,4.0,57,0.00,,---,0.00,VWS V14.00,2013-03-30 11:50:00,
2013-03-30 05:51:00,28.4,15.1,0.00,WNW,298,0.0,3.6,57,0.00,,---,0.00,VWS V14.00,2013-03-30 11:51:00,
2013-03-30 05:52:00,28.6,15.3,0.00,WNW,299,0.0,0.0,57,0.00,,---,0.00,VWS V14.00,2013-03-30 11:52:00,
2013-03-30 05:55:00,28.6,15.3,0.00,NW,304,0.0,0.0,57,0.00,,---,0.00,VWS V14.00,2013-03-30 11:55:00,
2013-03-30 05:56:00,28.6,15.3,0.00,NW,305,0.0,0.0,57,0.00,,---,0.00,VWS V14.00,2013-03-30 11:56:00,
2013-03-30 05:57:00,28.6,15.3,0.00,NW,305,0.0,0.0,57,0.00,,---,0.00,VWS V14.00,2013-03-30 11:57:00,
2013-03-30 06:00:00,28.6,14.9,0.00,WNW,301,0.0,0.0,56,0.00,,---,0.00,VWS V14.00,2013-03-30 12:00:00,
2013-03-30 06:01:00,28.4,15.1,0.00,WNW,301,0.0,0.0,57,0.00,,---,0.00,VWS V14.00,2013-03-30 12:01:00,
2013-03-30 06:02:00,28.4,15.1,0.00,WNW,289,0.0,0.0,57,0.00,,---,0.00,VWS V14.00,2013-03-30 12:02:00,
2013-03-30 06:06:00,28.4,15.1,0.00,WNW,284,0.0,0.0,57,0.00,,---,0.00,VWS V14.00,2013-03-30 12:06:00,
2013-03-30 06:07:00,28.4,15.1,0.00,WNW,288,0.0,0.0,57,0.00,,---,0.00,VWS V14.00,2013-03-30 12:07:00,
2013-03-30 06:11:00,28.4,15.1,0.00,WNW,290,2.7,2.7,57,0.00,,---,0.00,VWS V14.00,2013-03-30 12:11:00,
2013-03-30 06:12:00,28.4,15.1,0.00,West,279,0.0,0.0,57,0.00,,---,0.00,VWS V14.00,2013-03-30 12:12:00,
2013-03-30 06:16:00,28.4,15.1,0.00,WNW,284,0.0,0.0,57,0.00,,---,0.00,VWS V14.00,2013-03-30 12:16:00,
2013-03-30 06:17:00,28.4,15.1,0.00,WNW,284,0.0,0.0,57,0.00,,---,0.00,VWS V14.00,2013-03-30 12:17:00,
2013-03-30 06:21:00,28.2,15.0,0.00,WNW,290,0.0,2.7,57,0.00,,---,0.00,VWS V14.00,2013-03-30 12:21:00,
2013-03-30 06:22:00,28.2,15.0,0.00,WNW,290,0.0,0.0,57,0.00,,---,0.00,VWS V14.00,2013-03-30 12:22:00,
2013-03-30 06:26:00,28.2,14.6,0.00,WNW,291,0.0,0.0,56,0.00,,---,0.00,VWS V14.00,2013-03-30 12:26:00,
2013-03-30 06:27:00,28.2,14.6,0.00,WNW,290,0.0,0.0,56,0.00,,---,0.00,VWS V14.00,2013-03-30 12:27:00,
2013-03-30 06:32:00,28.2,14.6,0.00,SW,225,0.0,0.0,56,0.00,,---,0.00,VWS V14.00,2013-03-30 12:32:00,
2013-03-30 06:36:00,28.2,14.6,0.00,WSW,243,0.0,0.0,56,0.00,,---,0.00,VWS V14.00,2013-03-30 12:36:00,
2013-03-30 06:37:00,28.2,14.6,0.00,WSW,241,0.0,0.0,56,0.00,,---,0.00,VWS V14.00,2013-03-30 12:37:00,
2013-03-30 06:38:00,28.2,14.6,0.00,SW,235,0.0,0.0,56,0.00,,---,0.00,VWS V14.00,2013-03-30 12:38:00,
2013-03-30 06:42:00,28.0,14.4,0.00,WSW,241,0.0,0.0,56,0.00,,---,0.00,VWS V14.00,2013-03-30 12:42:00,
2013-03-30 06:43:00,28.0,14.4,0.00,SW,236,0.0,0.0,56,0.00,,---,0.00,VWS V14.00,2013-03-30 12:43:00,
2013-03-30 06:47:00,28.0,14.4,0.00,WSW,243,0.0,0.0,56,0.00,,---,0.00,VWS V14.00,2013-03-30 12:47:00,
2013-03-30 06:48:00,28.0,14.4,0.00,WSW,244,0.0,0.0,56,0.00,,---,0.00,VWS V14.00,2013-03-30 12:48:00,
2013-03-30 06:52:00,28.0,14.4,0.00,WSW,250,0.0,0.0,56,0.00,,---,0.00,VWS V14.00,2013-03-30 12:52:00,
2013-03-30 06:53:00,28.0,14.4,0.00,WSW,250,0.0,0.0,56,0.00,,---,0.00,VWS V14.00,2013-03-30 12:53:00,
2013-03-30 06:58:00,27.9,14.2,0.00,WSW,250,0.0,0.0,56,0.00,,---,0.00,VWS V14.00,2013-03-30 12:58:00,
2013-03-30 07:03:00,27.9,14.2,0.00,WNW,297,0.0,0.0,56,0.00,,---,0.00,VWS V14.00,2013-03-30 13:03:00,
2013-03-30 07:08:00,27.9,14.2,0.00,West,273,2.7,2.7,56,0.00,,---,0.00,VWS V14.00,2013-03-30 13:08:00,
2013-03-30 07:13:00,28.0,14.0,0.00,WSW,239,0.0,0.0,55,0.00,,---,0.00,VWS V14.00,2013-03-30 13:13:00,
2013-03-30 07:14:00,28.0,14.0,0.00,WSW,239,0.0,0.0,55,0.00,,---,0.00,VWS V14.00,2013-03-30 13:14:00,
2013-03-30 07:18:00,28.4,13.9,0.00,West,279,0.0,0.0,54,0.00,,---,0.00,VWS V14.00,2013-03-30 13:18:00,
2013-03-30 07:19:00,28.4,13.9,0.00,West,280,0.0,0.0,54,0.00,,---,0.00,VWS V14.00,2013-03-30 13:19:00,
2013-03-30 07:23:00,28.2,14.1,0.00,West,280,0.0,0.0,55,0.00,,---,0.00,VWS V14.00,2013-03-30 13:23:00,
2013-03-30 07:24:00,28.2,14.1,0.00,West,281,0.0,0.0,55,0.00,,---,0.00,VWS V14.00,2013-03-30 13:24:00,
2013-03-30 07:28:00,28.2,14.1,0.00,West,281,0.0,0.0,55,0.00,,---,0.00,VWS V14.00,2013-03-30 13:28:00,
2013-03-30 07:29:00,28.2,14.1,0.00,West,280,0.0,0.0,55,0.00,,---,0.00,VWS V14.00,2013-03-30 13:29:00,
2013-03-30 07:33:00,28.2,14.1,0.00,WNW,283,0.0,0.0,55,0.00,,---,0.00,VWS V14.00,2013-03-30 13:33:00,
2013-03-30 07:34:00,28.2,14.1,0.00,West,273,0.0,0.0,55,0.00,,---,0.00,VWS V14.00,2013-03-30 13:34:00,
2013-03-30 07:38:00,28.4,14.3,0.00,WNW,283,0.0,0.0,55,0.00,,---,0.00,VWS V14.00,2013-03-30 13:38:00,
2013-03-30 07:39:00,28.4,14.3,0.00,WNW,283,0.0,0.0,55,0.00,,---,0.00,VWS V14.00,2013-03-30 13:39:00,
2013-03-30 07:43:00,28.4,14.3,0.00,West,273,0.0,0.0,55,0.00,,---,0.00,VWS V14.00,2013-03-30 13:43:00,
2013-03-30 07:44:00,28.4,14.3,0.00,WNW,282,0.0,0.0,55,0.00,,---,0.00,VWS V14.00,2013-03-30 13:44:00,
2013-03-30 07:48:00,28.6,14.5,0.00,SSW,209,0.0,0.0,55,0.00,,---,0.00,VWS V14.00,2013-03-30 13:48:00,
2013-03-30 07:49:00,28.6,14.5,0.00,SSW,209,0.0,0.0,55,0.00,,---,0.00,VWS V14.00,2013-03-30 13:49:00,
2013-03-30 07:54:00,28.8,14.6,0.00,SSW,210,0.0,0.0,55,0.00,,---,0.00,VWS V14.00,2013-03-30 13:54:00,
2013-03-30 07:55:00,28.9,14.8,0.00,SSW,210,0.0,0.0,55,0.00,,---,0.00,VWS V14.00,2013-03-30 13:55:00,
2013-03-30 07:59:00,29.1,15.0,0.00,SSW,211,0.0,0.0,55,0.00,,---,0.00,VWS V14.00,2013-03-30 13:59:00,
2013-03-30 08:00:00,29.1,15.0,0.00,SSW,210,0.0,0.0,55,0.00,,---,0.00,VWS V14.00,2013-03-30 14:00:00,
2013-03-30 08:04:00,29.5,15.3,0.00,SSW,212,0.0,0.0,55,0.00,,---,0.00,VWS V14.00,2013-03-30 14:04:00,
2013-03-30 08:05:00,29.5,15.3,0.00,ESE,117,3.1,3.1,55,0.00,,---,0.00,VWS V14.00,2013-03-30 14:05:00,
2013-03-30 08:09:00,29.7,15.5,0.00,WNW,295,2.2,4.9,55,0.00,,---,0.00,VWS V14.00,2013-03-30 14:09:00,
2013-03-30 08:10:00,29.7,15.5,0.00,SE,140,3.1,3.6,55,0.00,,---,0.00,VWS V14.00,2013-03-30 14:10:00,
2013-03-30 08:14:00,30.0,15.8,0.00,SE,142,2.7,3.1,55,0.00,,---,0.00,VWS V14.00,2013-03-30 14:14:00,
2013-03-30 08:15:00,30.0,15.8,0.00,SE,142,2.7,2.7,55,0.00,,---,0.00,VWS V14.00,2013-03-30 14:15:00,
2013-03-30 08:19:00,30.2,16.0,0.00,SE,142,0.0,0.0,55,0.00,,---,0.00,VWS V14.00,2013-03-30 14:19:00,
2013-03-30 08:20:00,30.4,15.7,0.00,SE,142,0.0,0.0,54,0.00,,---,0.00,VWS V14.00,2013-03-30 14:20:00,
2013-03-30 08:24:00,30.6,15.9,0.00,SE,142,0.0,0.0,54,0.00,,---,0.00,VWS V14.00,2013-03-30 14:24:00,
2013-03-30 08:25:00,30.7,16.1,0.00,SE,140,0.0,0.0,54,0.00,,---,0.00,VWS V14.00,2013-03-30 14:25:00,
2013-03-30 08:26:00,30.7,16.1,0.00,ESE,104,3.6,4.0,54,0.00,,---,0.00,VWS V14.00,2013-03-30 14:26:00,
2013-03-30 08:29:00,30.9,16.2,0.00,ESE,121,0.0,4.0,54,0.00,,---,0.00,VWS V14.00,2013-03-30 14:29:00,
2013-03-30 08:30:00,31.1,16.4,0.00,ESE,121,0.0,4.0,54,0.00,,---,0.00,VWS V14.00,2013-03-30 14:30:00,
2013-03-30 08:31:00,31.1,16.4,0.00,SE,125,0.0,0.0,54,0.00,,---,0.00,VWS V14.00,2013-03-30 14:31:00,
2013-03-30 08:35:00,31.5,16.8,0.00,ESE,112,2.7,2.7,54,0.00,,---,0.00,VWS V14.00,2013-03-30 14:35:00,
2013-03-30 08:37:00,31.5,16.8,0.00,East,85,0.0,3.1,54,0.00,,---,0.00,VWS V14.00,2013-03-30 14:37:00,
2013-03-30 08:40:00,31.8,17.1,0.00,ESE,102,0.0,0.0,54,0.00,,---,0.00,VWS V14.00,2013-03-30 14:40:00,
2013-03-30 08:42:00,32.0,16.8,0.00,ESE,102,0.0,0.0,53,0.00,,---,0.00,VWS V14.00,2013-03-30 14:42:00,
2013-03-30 08:45:00,32.2,17.0,0.00,NNW,332,2.7,2.7,53,0.00,,---,0.00,VWS V14.00,2013-03-30 14:45:00,
2013-03-30 08:47:00,32.5,16.9,0.00,WNW,295,2.2,2.7,52,0.00,,---,0.00,VWS V14.00,2013-03-30 14:47:00,
2013-03-30 08:50:00,32.7,17.0,0.00,WNW,296,0.0,0.0,52,0.00,,---,0.00,VWS V14.00,2013-03-30 14:50:00,
2013-03-30 08:52:00,32.9,16.8,0.00,WNW,294,0.0,0.0,51,0.00,,---,0.00,VWS V14.00,2013-03-30 14:52:00,
2013-03-30 08:55:00,33.1,17.4,0.00,NW,313,2.2,5.4,52,0.00,,---,0.00,VWS V14.00,2013-03-30 14:55:00,
2013-03-30 08:57:00,33.4,17.3,0.00,WNW,300,2.7,2.7,51,0.00,,---,0.00,VWS V14.00,2013-03-30 14:57:00,
2013-03-30 09:00:00,33.6,17.4,0.00,ENE,67,0.0,0.0,51,0.00,,---,0.00,VWS V14.00,2013-03-30 15:00:00,
2013-03-30 09:02:00,33.8,17.6,0.00,SE,132,5.8,5.8,51,0.00,,---,0.00,VWS V14.00,2013-03-30 15:02:00,
2013-03-30 09:03:00,33.8,17.6,0.00,ENE,63,5.8,5.8,51,0.00,,---,0.00,VWS V14.00,2013-03-30 15:03:00,
2013-03-30 09:05:00,34.0,17.8,0.00,ESE,102,2.7,2.7,51,0.00,,---,0.00,VWS V14.00,2013-03-30 15:05:00,
2013-03-30 09:08:00,34.3,18.1,0.00,SE,129,3.6,4.0,51,0.00,,---,0.00,VWS V14.00,2013-03-30 15:08:00,
2013-03-30 09:09:00,34.3,18.1,0.00,SE,132,2.7,3.1,51,0.00,,---,0.00,VWS V14.00,2013-03-30 15:09:00,
2013-03-30 09:10:00,34.5,18.3,0.00,East,93,0.0,3.6,51,0.00,,---,0.00,VWS V14.00,2013-03-30 15:10:00,
2013-03-30 09:12:00,34.7,18.4,0.00,SE,124,3.1,4.0,51,0.00,,---,0.00,VWS V14.00,2013-03-30 15:12:00,
2013-03-30 09:13:00,34.9,18.6,0.00,SSW,199,0.0,2.2,51,0.00,,---,0.00,VWS V14.00,2013-03-30 15:13:00,
2013-03-30 09:14:00,34.9,18.6,0.00,SW,231,0.0,0.0,51,0.00,,---,0.00,VWS V14.00,2013-03-30 15:14:00,
2013-03-30 09:15:00,35.1,18.8,0.00,East,79,0.0,0.0,51,0.00,,---,0.00,VWS V14.00,2013-03-30 15:15:00,
2013-03-30 09:17:00,35.2,18.9,0.00,SE,145,3.1,3.1,51,0.00,,---,0.00,VWS V14.00,2013-03-30 15:17:00,
2013-03-30 09:18:00,35.2,18.5,0.00,ESE,116,5.8,5.8,50,0.00,,---,0.00,VWS V14.00,2013-03-30 15:18:00,
2013-03-30 09:19:00,35.4,18.6,0.00,ESE,121,4.0,4.0,50,0.00,,---,0.00,VWS V14.00,2013-03-30 15:19:00,
2013-03-30 09:21:00,35.6,18.8,0.00,ESE,111,3.1,5.8,50,0.00,,---,0.00,VWS V14.00,2013-03-30 15:21:00,
2013-03-30 09:22:00,35.8,18.5,0.00,SE,136,5.8,5.8,49,0.00,,---,0.00,VWS V14.00,2013-03-30 15:22:00,
2013-03-30 09:23:00,36.0,18.7,0.00,East,83,4.9,6.3,49,0.00,,---,0.00,VWS V14.00,2013-03-30 15:23:00,
2013-03-30 09:24:00,36.0,18.7,0.00,East,86,5.4,7.2,49,0.00,,---,0.00,VWS V14.00,2013-03-30 15:24:00,
2013-03-30 09:26:00,36.1,18.4,0.00,ESE,112,3.1,5.8,48,0.00,,---,0.00,VWS V14.00,2013-03-30 15:26:00,
2013-03-30 09:27:00,36.3,18.0,0.00,South,172,2.7,4.9,47,0.00,,---,0.00,VWS V14.00,2013-03-30 15:27:00,
2013-03-30 09:28:00,36.5,18.2,0.00,SE,124,0.0,2.7,47,0.00,,---,0.00,VWS V14.00,2013-03-30 15:28:00,
2013-03-30 09:29:00,36.5,18.2,0.00,ESE,120,0.0,2.2,47,0.00,,---,0.00,VWS V14.00,2013-03-30 15:29:00,
2013-03-30 09:31:00,36.7,17.9,0.00,SE,142,4.0,5.8,46,0.00,,---,0.00,VWS V14.00,2013-03-30 15:31:00,
2013-03-30 09:32:00,36.9,18.0,0.00,SE,137,0.0,5.4,46,0.00,,---,0.00,VWS V14.00,2013-03-30 15:32:00,
2013-03-30 09:33:00,36.9,18.0,0.00,East,84,3.1,3.1,46,0.00,,---,0.00,VWS V14.00,2013-03-30 15:33:00,
2013-03-30 09:34:00,37.0,18.2,0.00,SE,137,7.6,7.6,46,0.00,,---,0.00,VWS V14.00,2013-03-30 15:34:00,
2013-03-30 09:36:00,37.2,18.4,0.00,ESE,104,4.9,5.4,46,0.00,,---,0.00,VWS V14.00,2013-03-30 15:36:00,
2013-03-30 09:38:00,37.4,18.0,0.00,East,97,4.0,6.3,45,0.00,,---,0.00,VWS V14.00,2013-03-30 15:38:00,
2013-03-30 09:39:00,37.6,18.2,0.00,East,100,4.0,8.3,45,0.00,,---,0.00,VWS V14.00,2013-03-30 15:39:00,
2013-03-30 09:42:00,37.8,17.8,0.00,East,80,3.1,5.8,44,0.00,,---,0.00,VWS V14.00,2013-03-30 15:42:00,
2013-03-30 09:43:00,37.9,18.0,0.00,East,79,4.5,8.3,44,0.00,,---,0.00,VWS V14.00,2013-03-30 15:43:00,
2013-03-30 09:44:00,37.9,18.0,0.00,SSE,157,3.6,3.6,44,0.00,,---,0.00,VWS V14.00,2013-03-30 15:44:00,
2013-03-30 09:47:00,38.3,18.3,0.00,ESE,119,7.6,8.3,44,0.00,,---,0.00,VWS V14.00,2013-03-30 15:47:00,
2013-03-30 09:48:00,38.5,18.5,0.00,ENE,69,7.6,7.6,44,0.00,,---,0.00,VWS V14.00,2013-03-30 15:48:00,
2013-03-30 09:49:00,38.5,17.9,0.00,ESE,114,7.6,7.6,43,0.00,,---,0.00,VWS V14.00,2013-03-30 15:49:00,
2013-03-30 09:52:00,38.8,18.3,0.00,ESE,120,8.7,8.7,43,0.00,,---,0.00,VWS V14.00,2013-03-30 15:52:00,
2013-03-30 09:53:00,38.8,18.3,0.00,East,90,8.3,8.3,43,0.00,,---,0.00,VWS V14.00,2013-03-30 15:53:00,
2013-03-30 09:54:00,39.0,18.4,0.00,ESE,117,3.6,7.2,43,0.00,,---,0.00,VWS V14.00,2013-03-30 15:54:00,
2013-03-30 09:57:00,39.2,18.6,0.00,ESE,116,6.3,11.9,43,0.00,,---,0.00,VWS V14.00,2013-03-30 15:57:00,
2013-03-30 09:58:00,39.4,18.8,0.00,ESE,106,7.6,11.9,43,0.00,,---,0.00,VWS V14.00,2013-03-30 15:58:00,
2013-03-30 09:59:00,39.4,18.2,0.00,ESE,118,3.1,5.8,42,0.00,,---,0.00,VWS V14.00,2013-03-30 15:59:00,
2013-03-30 10:02:00,39.7,18.5,0.00,ESE,106,3.1,5.4,42,0.00,,---,0.00,VWS V14.00,2013-03-30 16:02:00,
2013-03-30 10:03:00,39.7,18.5,0.00,East,100,3.6,5.4,42,0.00,,---,0.00,VWS V14.00,2013-03-30 16:03:00,
2013-03-30 10:04:00,39.9,18.7,0.00,SE,125,4.5,7.6,42,0.00,,---,0.00,VWS V14.00,2013-03-30 16:04:00,
2013-03-30 10:07:00,40.1,18.9,0.00,SE,133,3.1,7.6,42,0.00,,---,0.00,VWS V14.00,2013-03-30 16:07:00,
2013-03-30 10:08:00,40.3,19.0,0.00,SSW,204,3.6,8.7,42,0.00,,---,0.00,VWS V14.00,2013-03-30 16:08:00,
2013-03-30 10:09:00,40.3,19.0,0.00,SW,227,2.2,5.8,42,0.00,,---,0.00,VWS V14.00,2013-03-30 16:09:00,
2013-03-30 10:12:00,40.5,18.6,0.00,SSW,205,0.0,4.9,41,0.00,,---,0.00,VWS V14.00,2013-03-30 16:12:00,
2013-03-30 10:13:00,40.5,18.6,0.00,SE,143,7.6,7.6,41,0.00,,---,0.00,VWS V14.00,2013-03-30 16:13:00,
2013-03-30 10:14:00,40.5,18.6,0.00,South,180,7.6,7.6,41,0.00,,---,0.00,VWS V14.00,2013-03-30 16:14:00,
2013-03-30 10:15:00,40.6,18.8,0.00,SE,126,8.3,8.3,41,0.00,,---,0.00,VWS V14.00,2013-03-30 16:15:00,
2013-03-30 10:17:00,40.8,19.0,0.00,ESE,112,4.0,4.9,41,0.00,,---,0.00,VWS V14.00,2013-03-30 16:17:00,
2013-03-30 10:18:00,40.8,19.0,0.00,SE,146,4.9,4.9,41,0.00,,---,0.00,VWS V14.00,2013-03-30 16:18:00,
2013-03-30 10:19:00,40.8,19.0,0.00,SE,125,3.1,4.9,41,0.00,,---,0.00,VWS V14.00,2013-03-30 16:19:00,
2013-03-30 10:20:00,41.0,19.1,0.00,SSE,161,3.1,3.6,41,0.00,,---,0.00,VWS V14.00,2013-03-30 16:20:00,
2013-03-30 10:22:00,41.0,18.5,0.00,ESE,111,4.0,5.4,40,0.00,,---,0.00,VWS V14.00,2013-03-30 16:22:00,
2013-03-30 10:23:00,41.2,18.7,0.00,South,187,4.0,4.0,40,0.00,,---,0.00,VWS V14.00,2013-03-30 16:23:00,
2013-03-30 10:24:00,41.2,18.7,0.00,SE,138,4.0,7.6,40,0.00,,---,0.00,VWS V14.00,2013-03-30 16:24:00,
2013-03-30 10:25:00,41.2,18.7,0.00,SE,139,6.3,6.3,40,0.00,,---,0.00,VWS V14.00,2013-03-30 16:25:00,
2013-03-30 10:27:00,41.2,18.7,0.00,East,87,4.9,4.9,40,0.00,,---,0.00,VWS V14.00,2013-03-30 16:27:00,
2013-03-30 10:28:00,41.4,18.9,0.00,ESE,109,8.1,11.0,40,0.00,,---,0.00,VWS V14.00,2013-03-30 16:28:00,
2013-03-30 10:29:00,41.4,18.9,0.00,East,92,3.6,5.8,40,0.00,,---,0.00,VWS V14.00,2013-03-30 16:29:00,
2013-03-30 10:30:00,41.4,18.9,0.00,South,186,0.0,0.0,40,0.00,,---,0.00,VWS V14.00,2013-03-30 16:30:00,
2013-03-30 10:33:00,41.5,19.0,0.00,South,176,2.7,6.3,40,0.00,,---,0.00,VWS V14.00,2013-03-30 16:33:00,
2013-03-30 10:34:00,41.5,19.0,0.00,SSE,165,2.7,2.7,40,0.00,,---,0.00,VWS V14.00,2013-03-30 16:34:00,
2013-03-30 10:35:00,41.5,19.0,0.00,SSW,193,0.0,5.4,40,0.00,,---,0.00,VWS V14.00,2013-03-30 16:35:00,
2013-03-30 10:38:00,41.5,19.0,0.00,East,89,4.0,4.0,40,0.00,,---,0.00,VWS V14.00,2013-03-30 16:38:00,
2013-03-30 10:39:00,41.7,19.2,0.00,East,91,3.1,3.1,40,0.00,,---,0.00,VWS V14.00,2013-03-30 16:39:00,
2013-03-30 10:40:00,41.7,19.2,0.00,SW,220,2.7,4.0,40,0.00,,---,0.00,VWS V14.00,2013-03-30 16:40:00,
2013-03-30 10:43:00,41.7,19.2,0.00,South,182,2.2,2.2,40,0.00,,---,0.00,VWS V14.00,2013-03-30 16:43:00,
2013-03-30 10:44:00,41.7,19.2,0.00,West,267,2.2,4.9,40,0.00,,---,0.00,VWS V14.00,2013-03-30 16:44:00,
2013-03-30 10:45:00,41.7,19.2,0.00,SSE,158,2.7,4.0,40,0.00,,---,0.00,VWS V14.00,2013-03-30 16:45:00,
2013-03-30 10:48:00,41.7,18.6,0.00,SSW,199,0.0,0.0,39,0.00,,---,0.00,VWS V14.00,2013-03-30 16:48:00,
2013-03-30 10:49:00,41.7,18.6,0.00,SSW,212,0.0,4.9,39,0.00,,---,0.00,VWS V14.00,2013-03-30 16:49:00,
2013-03-30 10:50:00,41.7,18.6,0.00,SSW,213,0.0,0.0,39,0.00,,---,0.00,VWS V14.00,2013-03-30 16:50:00,
2013-03-30 10:53:00,41.9,18.8,0.00,ESE,118,5.8,5.8,39,0.00,,---,0.00,VWS V14.00,2013-03-30 16:53:00,
2013-03-30 10:54:00,41.9,18.8,0.00,East,98,3.1,5.4,39,0.00,,---,0.00,VWS V14.00,2013-03-30 16:54:00,
2013-03-30 10:55:00,41.9,18.8,0.00,East,98,0.0,3.1,39,0.00,,---,0.00,VWS V14.00,2013-03-30 16:55:00,
2013-03-30 10:58:00,41.9,18.8,0.00,SSE,154,0.0,0.0,39,0.00,,---,0.00,VWS V14.00,2013-03-30 16:58:00,
2013-03-30 10:59:00,41.9,18.8,0.00,SSE,148,3.1,4.0,39,0.00,,---,0.00,VWS V14.00,2013-03-30 16:59:00,
2013-03-30 11:00:00,42.1,18.9,0.00,ESE,107,4.0,4.9,39,0.00,,---,0.00,VWS V14.00,2013-03-30 17:00:00,
2013-03-30 11:03:00,42.1,18.9,0.00,South,177,0.0,2.7,39,0.00,,---,0.00,VWS V14.00,2013-03-30 17:03:00,
2013-03-30 11:04:00,42.1,18.9,0.00,SSE,158,3.1,4.0,39,0.00,,---,0.00,VWS V14.00,2013-03-30 17:04:00,
2013-03-30 11:05:00,42.1,18.9,0.00,SE,145,3.1,4.0,39,0.00,,---,0.00,VWS V14.00,2013-03-30 17:05:00,
2013-03-30 11:08:00,42.1,18.9,0.00,SSE,162,0.0,0.0,39,0.00,,---,0.00,VWS V14.00,2013-03-30 17:08:00,
2013-03-30 11:09:00,42.1,18.9,0.00,SSW,209,0.0,0.0,39,0.00,,---,0.00,VWS V14.00,2013-03-30 17:09:00,
2013-03-30 11:10:00,42.1,18.9,0.00,SSW,202,0.0,0.0,39,0.00,,---,0.00,VWS V14.00,2013-03-30 17:10:00,
2013-03-30 11:13:00,42.1,18.9,0.00,SSE,162,4.0,5.4,39,0.00,,---,0.00,VWS V14.00,2013-03-30 17:13:00,
2013-03-30 11:15:00,42.1,18.9,0.00,ESE,118,2.7,5.4,39,0.00,,---,0.00,VWS V14.00,2013-03-30 17:15:00,
2013-03-30 11:18:00,41.9,18.8,0.00,SE,136,2.7,5.8,39,0.00,,---,0.00,VWS V14.00,2013-03-30 17:18:00,
2013-03-30 11:20:00,41.9,18.8,0.00,WSW,240,0.0,4.0,39,0.00,,---,0.00,VWS V14.00,2013-03-30 17:20:00,
2013-03-30 11:23:00,42.1,18.9,0.00,ESE,113,6.3,6.3,39,0.00,,---,0.00,VWS V14.00,2013-03-30 17:23:00,
2013-03-30 11:25:00,42.1,18.9,0.00,SE,140,5.8,8.7,39,0.00,,---,0.00,VWS V14.00,2013-03-30 17:25:00,
2013-03-30 11:28:00,42.1,18.9,0.00,ESE,115,3.6,6.7,39,0.00,,---,0.00,VWS V14.00,2013-03-30 17:28:00,
2013-03-30 11:30:00,42.1,18.9,0.00,South,185,0.0,4.0,39,0.00,,---,0.00,VWS V14.00,2013-03-30 17:30:00,
2013-03-30 11:31:00,42.1,18.9,0.00,South,191,0.0,0.0,39,0.00,,---,0.00,VWS V14.00,2013-03-30 17:31:00,
2013-03-30 11:33:00,42.3,19.1,0.00,East,88,5.8,5.8,39,0.00,,---,0.00,VWS V14.00,2013-03-30 17:33:00,
2013-03-30 11:35:00,42.3,19.1,0.00,ESE,116,3.6,6.3,39,0.00,,---,0.00,VWS V14.00,2013-03-30 17:35:00,
2013-03-30 11:36:00,42.3,19.1,0.00,East,99,4.0,6.3,39,0.00,,---,0.00,VWS V14.00,2013-03-30 17:36:00,
2013-03-30 11:39:00,42.4,19.2,0.00,ESE,102,5.4,5.4,39,0.00,,---,0.00,VWS V14.00,2013-03-30 17:39:00,
2013-03-30 11:40:00,42.6,19.4,0.00,SSE,164,6.3,6.3,39,0.00,,---,0.00,VWS V14.00,2013-03-30 17:40:00,
2013-03-30 11:41:00,42.6,19.4,0.00,NE,50,6.3,6.3,39,0.00,,---,0.00,VWS V14.00,2013-03-30 17:41:00,
2013-03-30 11:44:00,42.8,19.6,0.00,ESE,122,8.7,10.5,39,0.00,,---,0.00,VWS V14.00,2013-03-30 17:44:00,
2013-03-30 11:45:00,43.0,19.7,0.00,SW,218,3.6,4.0,39,0.00,,---,0.00,VWS V14.00,2013-03-30 17:45:00,
2013-03-30 11:46:00,43.0,19.7,0.00,SSW,212,3.1,4.0,39,0.00,,---,0.00,VWS V14.00,2013-03-30 17:46:00,
2013-03-30 11:49:00,43.2,19.3,0.00,East,86,6.3,6.3,38,0.00,,---,0.00,VWS V14.00,2013-03-30 17:49:00,
2013-03-30 11:51:00,43.3,19.5,0.00,ESE,119,5.4,11.0,38,0.00,,---,0.00,VWS V14.00,2013-03-30 17:51:00,
2013-03-30 11:52:00,43.3,19.5,0.00,SSE,159,3.6,5.8,38,0.00,,---,0.00,VWS V14.00,2013-03-30 17:52:00,
2013-03-30 11:54:00,43.5,19.6,0.00,ESE,121,5.8,5.8,38,0.00,,---,0.00,VWS V14.00,2013-03-30 17:54:00,
2013-03-30 11:56:00,43.5,19.6,0.00,East,79,6.3,10.5,38,0.00,,---,0.00,VWS V14.00,2013-03-30 17:56:00,
2013-03-30 11:57:00,43.7,19.8,0.00,East,98,3.1,5.4,38,0.00,,---,0.00,VWS V14.00,2013-03-30 17:57:00,
2013-03-30 11:59:00,43.7,19.8,0.00,SE,135,5.8,6.3,38,0.00,,---,0.00,VWS V14.00,2013-03-30 17:59:00,
2013-03-30 12:01:00,43.9,19.9,0.00,ESE,113,4.0,8.1,38,0.00,,---,0.00,VWS V14.00,2013-03-30 18:01:00,
2013-03-30 12:02:00,43.9,19.9,0.00,East,88,6.3,10.5,38,0.00,,---,0.00,VWS V14.00,2013-03-30 18:02:00,
2013-03-30 12:04:00,44.1,20.1,0.00,ESE,102,5.8,10.5,38,0.00,,---,0.00,VWS V14.00,2013-03-30 18:04:00,
2013-03-30 12:06:00,44.1,20.1,0.00,SSE,164,3.6,3.6,38,0.00,,---,0.00,VWS V14.00,2013-03-30 18:06:00,
2013-03-30 12:07:00,44.2,20.3,0.00,SSW,211,3.1,5.4,38,0.00,,---,0.00,VWS V14.00,2013-03-30 18:07:00,
2013-03-30 12:09:00,44.2,20.3,0.00,ESE,114,5.8,8.1,38,0.00,,---,0.00,VWS V14.00,2013-03-30 18:09:00,
2013-03-30 12:11:00,44.4,20.4,0.00,ESE,114,6.3,6.3,38,0.00,,---,0.00,VWS V14.00,2013-03-30 18:11:00,
2013-03-30 12:12:00,44.6,20.6,0.00,SE,125,8.3,8.3,38,0.00,,---,0.00,VWS V14.00,2013-03-30 18:12:00,
2013-03-30 12:13:00,44.6,20.6,0.00,SE,132,7.6,8.3,38,0.00,,---,0.00,VWS V14.00,2013-03-30 18:13:00,
2013-03-30 12:14:00,44.8,20.7,0.00,SE,135,7.6,10.5,38,0.00,,---,0.00,VWS V14.00,2013-03-30 18:14:00,
2013-03-30 12:16:00,44.8,20.7,0.00,ESE,115,5.8,6.3,38,0.00,,---,0.00,VWS V14.00,2013-03-30 18:16:00,
2013-03-30 12:17:00,44.8,20.7,0.00,ESE,111,2.7,5.8,38,0.00,,---,0.00,VWS V14.00,2013-03-30 18:17:00,
2013-03-30 12:18:00,44.8,20.7,0.00,East,99,6.3,6.3,38,0.00,,---,0.00,VWS V14.00,2013-03-30 18:18:00,
2013-03-30 12:19:00,45.0,20.9,0.00,East,90,3.6,5.8,38,0.00,,---,0.00,VWS V14.00,2013-03-30 18:19:00,
2013-03-30 12:21:00,45.0,20.9,0.00,SE,125,10.1,10.1,38,0.00,,---,0.00,VWS V14.00,2013-03-30 18:21:00,
2013-03-30 12:23:00,45.1,21.1,0.00,NNE,22,6.3,10.1,38,0.00,,---,0.00,VWS V14.00,2013-03-30 18:23:00,
2013-03-30 12:25:00,45.1,21.1,0.00,East,100,9.2,9.2,38,0.00,,---,0.00,VWS V14.00,2013-03-30 18:25:00,
2013-03-30 12:27:00,45.1,21.1,0.00,ESE,109,6.7,6.7,38,0.00,,---,0.00,VWS V14.00,2013-03-30 18:27:00,
2013-03-30 12:28:00,45.1,21.1,0.00,ESE,104,9.6,9.6,38,0.00,,---,0.00,VWS V14.00,2013-03-30 18:28:00,
2013-03-30 12:30:00,45.3,21.2,0.00,SE,125,4.9,6.3,38,0.00,,---,0.00,VWS V14.00,2013-03-30 18:30:00,
2013-03-30 12:32:00,45.3,21.2,0.00,ENE,73,8.3,8.3,38,0.00,,---,0.00,VWS V14.00,2013-03-30 18:32:00,
2013-03-30 12:33:00,45.3,21.2,0.00,East,101,8.1,10.5,38,0.00,,---,0.00,VWS V14.00,2013-03-30 18:33:00,
2013-03-30 12:35:00,45.5,21.4,0.00,SSE,165,3.1,5.4,38,0.00,,---,0.00,VWS V14.00,2013-03-30 18:35:00,
2013-03-30 12:37:00,45.5,21.4,0.00,East,98,6.3,6.3,38,0.00,,---,0.00,VWS V14.00,2013-03-30 18:37:00,
2013-03-30 12:38:00,45.5,21.4,0.00,SE,128,5.4,8.3,38,0.00,,---,0.00,VWS V14.00,2013-03-30 18:38:00,
2013-03-30 12:39:00,45.5,21.4,0.00,ENE,65,8.1,8.1,38,0.00,,---,0.00,VWS V14.00,2013-03-30 18:39:00,
2013-03-30 12:40:00,45.7,21.5,0.00,ESE,104,5.4,5.4,38,0.00,,---,0.00,VWS V14.00,2013-03-30 18:40:00,
2013-03-30 12:42:00,45.7,21.5,0.00,East,86,8.3,8.3,38,0.00,,---,0.00,VWS V14.00,2013-03-30 18:42:00,
2013-03-30 12:43:00,45.9,21.7,0.00,SE,142,8.1,9.6,38,0.00,,---,0.00,VWS V14.00,2013-03-30 18:43:00,
2013-03-30 12:44:00,45.9,21.7,0.00,East,84,10.1,10.1,38,0.00,,---,0.00,VWS V14.00,2013-03-30 18:44:00,
2013-03-30 12:45:00,45.9,21.7,0.00,SSE,150,4.9,5.8,38,0.00,,---,0.00,VWS V14.00,2013-03-30 18:45:00,
2013-03-30 12:47:00,46.0,21.9,0.00,SE,129,4.0,8.1,38,0.00,,---,0.00,VWS V14.00,2013-03-30 18:47:00,
2013-03-30 12:48:00,46.0,21.9,0.00,SE,129,5.4,7.6,38,0.00,,---,0.00,VWS V14.00,2013-03-30 18:48:00,
2013-03-30 12:49:00,46.0,21.9,0.00,East,89,5.4,5.4,38,0.00,,---,0.00,VWS V14.00,2013-03-30 18:49:00,
2013-03-30 12:50:00,46.0,21.2,0.00,ESE,120,6.3,6.3,37,0.00,,---,0.00,VWS V14.00,2013-03-30 18:50:00,
2013-03-30 12:52:00,45.9,21.7,0.00,ENE,76,2.7,4.9,38,0.00,,---,0.00,VWS V14.00,2013-03-30 18:52:00,
2013-03-30 12:53:00,45.9,21.7,0.00,ESE,103,4.0,5.4,38,0.00,,---,0.00,VWS V14.00,2013-03-30 18:53:00,
2013-03-30 12:54:00,45.9,21.7,0.00,East,98,6.3,6.3,38,0.00,,---,0.00,VWS V14.00,2013-03-30 18:54:00,
2013-03-30 12:55:00,45.9,21.7,0.00,WSW,241,7.6,8.1,38,0.00,,---,0.00,VWS V14.00,2013-03-30 18:55:00,
2013-03-30 12:58:00,45.9,21.7,0.00,ESE,103,8.3,8.3,38,0.00,,---,0.00,VWS V14.00,2013-03-30 18:58:00,
2013-03-30 12:59:00,45.9,21.7,0.00,ESE,119,8.1,10.1,38,0.00,,---,0.00,VWS V14.00,2013-03-30 18:59:00,
2013-03-30 13:00:00,46.0,21.9,0.00,SSE,147,10.1,11.0,38,0.00,,---,0.00,VWS V14.00,2013-03-30 19:00:00,
2013-03-30 13:03:00,46.0,21.9,0.00,ESE,105,3.6,8.3,38,0.00,,---,0.00,VWS V14.00,2013-03-30 19:03:00,
2013-03-30 13:04:00,46.0,21.9,0.00,ESE,118,4.9,8.3,38,0.00,,---,0.00,VWS V14.00,2013-03-30 19:04:00,
2013-03-30 13:05:00,46.0,21.9,0.00,NE,56,5.4,5.4,38,0.00,,---,0.00,VWS V14.00,2013-03-30 19:05:00,
2013-03-30 13:08:00,46.2,22.0,0.00,SE,144,5.8,7.6,38,0.00,,---,0.00,VWS V14.00,2013-03-30 19:08:00,
2013-03-30 13:09:00,46.2,22.0,0.00,SE,142,6.3,6.3,38,0.00,,---,0.00,VWS V14.00,2013-03-30 19:09:00,
2013-03-30 13:10:00,46.2,22.0,0.00,SSE,150,10.1,10.1,38,0.00,,---,0.00,VWS V14.00,2013-03-30 19:10:00,
2013-03-30 13:13:00,46.4,21.6,0.00,East,91,5.8,8.3,37,0.00,,---,0.00,VWS V14.00,2013-03-30 19:13:00,
2013-03-30 13:14:00,46.6,21.7,0.00,ESE,120,6.3,9.6,37,0.00,,---,0.00,VWS V14.00,2013-03-30 19:14:00,
2013-03-30 13:15:00,46.6,21.7,0.00,ESE,105,5.4,7.6,37,0.00,,---,0.00,VWS V14.00,2013-03-30 19:15:00,
2013-03-30 13:18:00,46.8,21.9,0.00,ENE,62,5.4,7.6,37,0.00,,---,0.00,VWS V14.00,2013-03-30 19:18:00,
2013-03-30 13:19:00,46.8,21.9,0.00,SSE,149,2.7,4.5,37,0.00,,---,0.00,VWS V14.00,2013-03-30 19:19:00,
2013-03-30 13:20:00,46.8,21.9,0.00,SE,128,13.2,13.2,37,0.00,,---,0.00,VWS V14.00,2013-03-30 19:20:00,
2013-03-30 13:23:00,46.9,22.0,0.00,SE,145,8.7,8.7,37,0.00,,---,0.00,VWS V14.00,2013-03-30 19:23:00,
2013-03-30 13:24:00,46.9,22.0,0.00,ESE,105,10.1,10.1,37,0.00,,---,0.00,VWS V14.00,2013-03-30 19:24:00,
2013-03-30 13:25:00,46.9,22.0,0.00,East,95,15.0,15.0,37,0.00,,---,0.00,VWS V14.00,2013-03-30 19:25:00,
2013-03-30 13:28:00,46.9,22.0,0.00,ESE,123,8.1,9.6,37,0.00,,---,0.00,VWS V14.00,2013-03-30 19:28:00,
2013-03-30 13:29:00,46.9,22.0,0.00,SE,132,8.1,11.0,37,0.00,,---,0.00,VWS V14.00,2013-03-30 19:29:00,
2013-03-30 13:30:00,46.9,22.0,0.00,ESE,113,10.1,11.0,37,0.00,,---,0.00,VWS V14.00,2013-03-30 19:30:00,
2013-03-30 13:31:00,46.9,22.0,0.00,East,86,8.3,8.3,37,0.00,,---,0.00,VWS V14.00,2013-03-30 19:31:00,
2013-03-30 13:33:00,47.1,22.2,0.00,SSE,150,8.3,12.8,37,0.00,,---,0.00,VWS V14.00,2013-03-30 19:33:00,
2013-03-30 13:34:00,47.1,22.2,0.00,ESE,115,8.3,8.3,37,0.00,,---,0.00,VWS V14.00,2013-03-30 19:34:00,
2013-03-30 13:35:00,47.1,22.2,0.00,East,95,6.7,6.7,37,0.00,,---,0.00,VWS V14.00,2013-03-30 19:35:00,
2013-03-30 13:36:00,47.1,22.2,0.00,ENE,67,5.4,8.3,37,0.00,,---,0.00,VWS V14.00,2013-03-30 19:36:00,
2013-03-30 13:38:00,47.3,22.4,0.00,ESE,122,6.3,8.3,37,0.00,,---,0.00,VWS V14.00,2013-03-30 19:38:00,
2013-03-30 13:39:00,47.1,22.2,0.00,SE,142,8.1,8.1,37,0.00,,---,0.00,VWS V14.00,2013-03-30 19:39:00,
2013-03-30 13:40:00,47.1,22.2,0.00,East,96,5.8,8.3,37,0.00,,---,0.00,VWS V14.00,2013-03-30 19:40:00,
2013-03-30 13:41:00,47.1,22.2,0.00,SSE,152,7.2,12.3,37,0.00,,---,0.00,VWS V14.00,2013-03-30 19:41:00,
2013-03-30 13:44:00,47.1,22.2,0.00,ESE,112,8.1,8.1,37,0.00,,---,0.00,VWS V14.00,2013-03-30 19:44:00,
2013-03-30 13:45:00,47.1,22.2,0.00,ESE,117,8.1,8.7,37,0.00,,---,0.00,VWS V14.00,2013-03-30 19:45:00,
2013-03-30 13:47:00,47.1,22.2,0.00,East,99,10.5,10.5,37,0.00,,---,0.00,VWS V14.00,2013-03-30 19:47:00,
2013-03-30 13:49:00,47.1,22.2,0.00,East,88,10.5,13.2,37,0.00,,---,0.00,VWS V14.00,2013-03-30 19:49:00,
2013-03-30 13:50:00,47.1,22.2,0.00,SE,145,7.6,10.1,37,0.00,,---,0.00,VWS V14.00,2013-03-30 19:50:00,
2013-03-30 13:52:00,47.1,22.2,0.00,East,80,5.8,7.6,37,0.00,,---,0.00,VWS V14.00,2013-03-30 19:52:00,
2013-03-30 13:54:00,47.1,22.2,0.00,ESE,122,12.8,12.8,37,0.00,,---,0.00,VWS V14.00,2013-03-30 19:54:00,
2013-03-30 13:55:00,47.1,22.2,0.00,ESE,117,6.3,15.4,37,0.00,,---,0.00,VWS V14.00,2013-03-30 19:55:00,
2013-03-30 13:57:00,47.1,22.2,0.00,SE,131,8.3,8.7,37,0.00,,---,0.00,VWS V14.00,2013-03-30 19:57:00,
2013-03-30 13:59:00,47.1,22.2,0.00,ESE,112,8.1,10.1,37,0.00,,---,0.00,VWS V14.00,2013-03-30 19:59:00,
2013-03-30 14:01:00,47.1,22.2,0.00,ESE,117,11.4,11.4,37,0.00,,---,0.00,VWS V14.00,2013-03-30 20:01:00,
2013-03-30 14:02:00,47.3,22.4,0.00,ESE,105,8.1,11.0,37,0.00,,---,0.00,VWS V14.00,2013-03-30 20:02:00,
2013-03-30 14:04:00,47.3,22.4,0.00,SSE,165,5.8,8.1,37,0.00,,---,0.00,VWS V14.00,2013-03-30 20:04:00,
2013-03-30 14:06:00,47.3,22.4,0.00,SE,126,15.9,15.9,37,0.00,,---,0.00,VWS V14.00,2013-03-30 20:06:00,
2013-03-30 14:07:00,47.3,22.4,0.00,East,90,8.1,10.5,37,0.00,,---,0.00,VWS V14.00,2013-03-30 20:07:00,
2013-03-30 14:09:00,47.3,22.4,0.00,East,99,8.3,8.7,37,0.00,,---,0.00,VWS V14.00,2013-03-30 20:09:00,
2013-03-30 14:10:00,47.3,22.4,0.00,ESE,105,5.4,8.7,37,0.00,,---,0.00,VWS V14.00,2013-03-30 20:10:00,
2013-03-30 14:12:00,47.3,22.4,0.00,ESE,104,9.2,10.5,37,0.00,,---,0.00,VWS V14.00,2013-03-30 20:12:00,
2013-03-30 14:14:00,47.3,22.4,0.00,ESE,122,12.3,12.8,37,0.00,,---,0.00,VWS V14.00,2013-03-30 20:14:00,
2013-03-30 14:15:00,47.3,22.4,0.00,SSW,195,5.4,6.3,37,0.00,,---,0.00,VWS V14.00,2013-03-30 20:15:00,
2013-03-30 14:17:00,47.3,22.4,0.00,SE,126,5.4,8.1,37,0.00,,---,0.00,VWS V14.00,2013-03-30 20:17:00,
2013-03-30 14:19:00,47.3,22.4,0.00,ESE,110,12.8,14.5,37,0.00,,---,0.00,VWS V14.00,2013-03-30 20:19:00,
2013-03-30 14:20:00,47.3,22.4,0.00,SE,124,8.1,8.3,37,0.00,,---,0.00,VWS V14.00,2013-03-30 20:20:00,
2013-03-30 14:22:00,47.3,22.4,0.00,SE,132,3.6,13.2,37,0.00,,---,0.00,VWS V14.00,2013-03-30 20:22:00,
2013-03-30 14:23:00,47.3,22.4,0.00,SE,132,3.6,13.2,37,0.00,,---,0.00,VWS V14.00,2013-03-30 20:23:00,
2013-03-30 14:24:00,47.3,22.4,0.00,East,95,6.3,6.3,37,0.00,,---,0.00,VWS V14.00,2013-03-30 20:24:00,
2013-03-30 14:25:00,47.3,22.4,0.00,SE,140,8.3,8.3,37,0.00,,---,0.00,VWS V14.00,2013-03-30 20:25:00,
2013-03-30 14:28:00,47.3,22.4,0.00,East,86,12.8,12.8,37,0.00,,---,0.00,VWS V14.00,2013-03-30 20:28:00,
2013-03-30 14:29:00,47.3,22.4,0.00,East,81,9.2,10.5,37,0.00,,---,0.00,VWS V14.00,2013-03-30 20:29:00,
2013-03-30 14:30:00,47.3,22.4,0.00,SE,127,8.1,10.1,37,0.00,,---,0.00,VWS V14.00,2013-03-30 20:30:00,
2013-03-30 14:33:00,47.1,22.8,0.00,SSE,156,3.1,3.1,38,0.00,,---,0.00,VWS V14.00,2013-03-30 20:33:00,
2013-03-30 14:34:00,47.1,22.8,0.00,SSW,203,3.1,6.3,38,0.00,,---,0.00,VWS V14.00,2013-03-30 20:34:00,
2013-03-30 14:35:00,47.1,22.8,0.00,SSW,199,2.7,4.0,38,0.00,,---,0.00,VWS V14.00,2013-03-30 20:35:00,
2013-03-30 14:38:00,46.9,22.7,0.00,SSW,197,4.0,4.0,38,0.00,,---,0.00,VWS V14.00,2013-03-30 20:38:00,
2013-03-30 14:39:00,46.9,22.7,0.00,ESE,122,3.6,4.0,38,0.00,,---,0.00,VWS V14.00,2013-03-30 20:39:00,
2013-03-30 14:40:00,46.9,22.7,0.00,South,170,3.6,4.9,38,0.00,,---,0.00,VWS V14.00,2013-03-30 20:40:00,
2013-03-30 14:43:00,47.1,22.8,0.00,SE,131,8.3,8.3,38,0.00,,---,0.00,VWS V14.00,2013-03-30 20:43:00,
2013-03-30 14:44:00,47.1,22.8,0.00,South,173,7.2,8.3,38,0.00,,---,0.00,VWS V14.00,2013-03-30 20:44:00,
2013-03-30 14:45:00,47.1,22.8,0.00,SSE,154,5.4,6.3,38,0.00,,---,0.00,VWS V14.00,2013-03-30 20:45:00,
2013-03-30 14:48:00,47.3,23.0,0.00,East,93,11.0,12.8,38,0.00,,---,0.00,VWS V14.00,2013-03-30 20:48:00,
2013-03-30 14:49:00,47.3,23.0,0.00,SE,137,7.6,10.5,38,0.00,,---,0.00,VWS V14.00,2013-03-30 20:49:00,
2013-03-30 14:50:00,47.3,23.0,0.00,ESE,119,7.6,10.5,38,0.00,,---,0.00,VWS V14.00,2013-03-30 20:50:00,
2013-03-30 14:53:00,47.5,23.2,0.00,East,87,10.5,11.4,38,0.00,,---,0.00,VWS V14.00,2013-03-30 20:53:00,
2013-03-30 14:54:00,47.5,23.2,0.00,ESE,105,5.8,8.1,38,0.00,,---,0.00,VWS V14.00,2013-03-30 20:54:00,
2013-03-30 14:55:00,47.7,23.3,0.00,SSE,166,2.7,8.1,38,0.00,,---,0.00,VWS V14.00,2013-03-30 20:55:00,
2013-03-30 14:58:00,47.7,23.3,0.00,ESE,116,3.1,5.8,38,0.00,,---,0.00,VWS V14.00,2013-03-30 20:58:00,
2013-03-30 14:59:00,47.8,23.5,0.00,ESE,122,9.6,9.6,38,0.00,,---,0.00,VWS V14.00,2013-03-30 20:59:00,
2013-03-30 15:00:00,47.8,23.5,0.00,ENE,76,12.8,12.8,38,0.00,,---,0.00,VWS V14.00,2013-03-30 21:00:00,
2013-03-30 15:03:00,48.2,23.2,0.00,SE,146,6.3,6.3,37,0.00,,---,0.00,VWS V14.00,2013-03-30 21:03:00,
2013-03-30 15:04:00,48.2,23.2,0.00,SE,144,4.0,7.6,37,0.00,,---,0.00,VWS V14.00,2013-03-30 21:04:00,
2013-03-30 15:05:00,48.2,23.2,0.00,East,100,7.2,7.2,37,0.00,,---,0.00,VWS V14.00,2013-03-30 21:05:00,
2013-03-30 15:08:00,48.4,23.3,0.00,ESE,105,3.1,10.5,37,0.00,,---,0.00,VWS V14.00,2013-03-30 21:08:00,
2013-03-30 15:09:00,48.6,23.5,0.00,ESE,119,10.1,10.5,37,0.00,,---,0.00,VWS V14.00,2013-03-30 21:09:00,
2013-03-30 15:10:00,48.6,23.5,0.00,SE,134,8.3,8.7,37,0.00,,---,0.00,VWS V14.00,2013-03-30 21:10:00,
2013-03-30 15:13:00,48.7,23.6,0.00,ENE,76,10.1,15.4,37,0.00,,---,0.00,VWS V14.00,2013-03-30 21:13:00,
2013-03-30 15:14:00,48.7,23.6,0.00,South,182,8.3,8.3,37,0.00,,---,0.00,VWS V14.00,2013-03-30 21:14:00,
2013-03-30 15:15:00,48.7,23.6,0.00,South,182,2.7,8.3,37,0.00,,---,0.00,VWS V14.00,2013-03-30 21:15:00,
2013-03-30 15:19:00,48.7,23.6,0.00,SE,138,4.9,6.3,37,0.00,,---,0.00,VWS V14.00,2013-03-30 21:19:00,
2013-03-30 15:20:00,48.7,23.6,0.00,ENE,77,5.4,6.3,37,0.00,,---,0.00,VWS V14.00,2013-03-30 21:20:00,
2013-03-30 15:24:00,48.7,23.6,0.00,ESE,119,5.4,5.4,37,0.00,,---,0.00,VWS V14.00,2013-03-30 21:24:00,
2013-03-30 15:25:00,48.6,23.5,0.00,SSE,168,8.7,8.7,37,0.00,,---,0.00,VWS V14.00,2013-03-30 21:25:00,
2013-03-30 15:26:00,48.6,23.5,0.00,ESE,117,4.0,9.6,37,0.00,,---,0.00,VWS V14.00,2013-03-30 21:26:00,
2013-03-30 15:29:00,48.6,23.5,0.00,East,101,7.6,7.6,37,0.00,,---,0.00,VWS V14.00,2013-03-30 21:29:00,
2013-03-30 15:30:00,48.6,23.5,0.00,SSE,165,2.2,4.0,37,0.00,,---,0.00,VWS V14.00,2013-03-30 21:30:00,
2013-03-30 15:32:00,48.6,23.5,0.00,SE,128,5.8,11.0,37,0.00,,---,0.00,VWS V14.00,2013-03-30 21:32:00,
2013-03-30 15:34:00,48.7,23.6,0.00,SE,140,8.7,8.7,37,0.00,,---,0.00,VWS V14.00,2013-03-30 21:34:00,
2013-03-30 15:35:00,48.7,23.6,0.00,SE,130,4.9,5.4,37,0.00,,---,0.00,VWS V14.00,2013-03-30 21:35:00,
2013-03-30 15:37:00,48.7,23.6,0.00,ENE,75,5.4,8.3,37,0.00,,---,0.00,VWS V14.00,2013-03-30 21:37:00,
2013-03-30 15:39:00,48.9,23.8,0.00,SE,131,3.6,11.4,37,0.00,,---,0.00,VWS V14.00,2013-03-30 21:39:00,
2013-03-30 15:40:00,48.9,23.8,0.00,East,101,4.0,5.4,37,0.00,,---,0.00,VWS V14.00,2013-03-30 21:40:00,
2013-03-30 15:42:00,49.1,24.0,0.00,SE,130,6.3,8.7,37,0.00,,---,0.00,VWS V14.00,2013-03-30 21:42:00,
2013-03-30 15:44:00,49.1,24.0,0.00,ESE,105,8.7,8.7,37,0.00,,---,0.00,VWS V14.00,2013-03-30 21:44:00,
2013-03-30 15:45:00,49.3,24.1,0.00,East,97,4.0,7.6,37,0.00,,---,0.00,VWS V14.00,2013-03-30 21:45:00,
2013-03-30 15:46:00,49.3,24.1,0.00,SE,142,5.8,5.8,37,0.00,,---,0.00,VWS V14.00,2013-03-30 21:46:00,
2013-03-30 15:47:00,49.3,24.1,0.00,ESE,104,5.8,5.8,37,0.00,,---,0.00,VWS V14.00,2013-03-30 21:47:00,
2013-03-30 15:49:00,49.3,24.1,0.00,ESE,121,5.8,8.1,37,0.00,,---,0.00,VWS V14.00,2013-03-30 21:49:00,
2013-03-30 15:50:00,49.3,24.1,0.00,East,83,4.9,5.4,37,0.00,,---,0.00,VWS V14.00,2013-03-30 21:50:00,
2013-03-30 15:51:00,49.3,24.1,0.00,ESE,110,3.6,5.4,37,0.00,,---,0.00,VWS V14.00,2013-03-30 21:51:00,
2013-03-30 15:53:00,49.3,24.1,0.00,ENE,76,5.4,8.1,37,0.00,,---,0.00,VWS V14.00,2013-03-30 21:53:00,
2013-03-30 15:54:00,49.1,24.0,0.00,East,90,8.7,8.7,37,0.00,,---,0.00,VWS V14.00,2013-03-30 21:54:00,
2013-03-30 15:55:00,49.1,24.0,0.00,East,96,8.1,11.0,37,0.00,,---,0.00,VWS V14.00,2013-03-30 21:55:00,
2013-03-30 15:56:00,48.9,23.8,0.00,ESE,123,6.3,11.0,37,0.00,,---,0.00,VWS V14.00,2013-03-30 21:56:00,
2013-03-30 15:58:00,48.9,23.8,0.00,ESE,110,4.0,11.0,37,0.00,,---,0.00,VWS V14.00,2013-03-30 21:58:00,
2013-03-30 16:00:00,48.7,23.6,0.00,ENE,73,4.0,5.8,37,0.00,,---,0.00,VWS V14.00,2013-03-30 22:00:00,
2013-03-30 16:01:00,48.7,23.6,0.00,ENE,66,4.0,5.8,37,0.00,,---,0.00,VWS V14.00,2013-03-30 22:01:00,
2013-03-30 16:03:00,48.7,23.6,0.00,East,97,4.5,4.5,37,0.00,,---,0.00,VWS V14.00,2013-03-30 22:03:00,
2013-03-30 16:05:00,48.9,23.8,0.00,ESE,112,4.9,4.9,37,0.00,,---,0.00,VWS V14.00,2013-03-30 22:05:00,
2013-03-30 16:06:00,48.9,23.8,0.00,SE,131,8.3,8.3,37,0.00,,---,0.00,VWS V14.00,2013-03-30 22:06:00,
2013-03-30 16:08:00,48.9,23.8,0.00,East,101,6.7,8.7,37,0.00,,---,0.00,VWS V14.00,2013-03-30 22:08:00,
2013-03-30 16:10:00,48.9,23.8,0.00,SE,134,5.8,8.3,37,0.00,,---,0.00,VWS V14.00,2013-03-30 22:10:00,
2013-03-30 16:12:00,49.1,24.0,0.00,ESE,112,3.1,3.6,37,0.00,,---,0.00,VWS V14.00,2013-03-30 22:12:00,
2013-03-30 16:13:00,49.1,24.0,0.00,SE,136,5.8,8.7,37,0.00,,---,0.00,VWS V14.00,2013-03-30 22:13:00,
2013-03-30 16:15:00,49.1,24.0,0.00,East,88,8.3,8.3,37,0.00,,---,0.00,VWS V14.00,2013-03-30 22:15:00,
2013-03-30 16:17:00,49.1,24.0,0.00,SSE,157,6.3,8.3,37,0.00,,---,0.00,VWS V14.00,2013-03-30 22:17:00,
2013-03-30 16:18:00,49.1,24.0,0.00,NE,46,6.3,10.5,37,0.00,,---,0.00,VWS V14.00,2013-03-30 22:18:00,
2013-03-30 16:20:00,49.1,24.0,0.00,ESE,121,5.8,6.3,37,0.00,,---,0.00,VWS V14.00,2013-03-30 22:20:00,
2013-03-30 16:22:00,49.1,24.0,0.00,East,97,6.3,7.6,37,0.00,,---,0.00,VWS V14.00,2013-03-30 22:22:00,
2013-03-30 16:23:00,49.1,24.0,0.00,ESE,108,10.1,11.9,37,0.00,,---,0.00,VWS V14.00,2013-03-30 22:23:00,
2013-03-30 16:25:00,49.1,24.0,0.00,SE,124,13.2,13.2,37,0.00,,---,0.00,VWS V14.00,2013-03-30 22:25:00,
2013-03-30 16:27:00,49.1,24.0,0.00,ESE,123,10.1,11.9,37,0.00,,---,0.00,VWS V14.00,2013-03-30 22:27:00,
2013-03-30 16:29:00,49.1,24.0,0.00,ENE,68,5.4,8.7,37,0.00,,---,0.00,VWS V14.00,2013-03-30 22:29:00,
2013-03-30 16:30:00,49.1,24.0,0.00,ESE,107,4.0,12.8,37,0.00,,---,0.00,VWS V14.00,2013-03-30 22:30:00,
2013-03-30 16:32:00,49.1,24.0,0.00,ESE,105,5.8,5.8,37,0.00,,---,0.00,VWS V14.00,2013-03-30 22:32:00,
2013-03-30 16:34:00,49.1,24.0,0.00,ESE,120,4.9,7.6,37,0.00,,---,0.00,VWS V14.00,2013-03-30 22:34:00,
2013-03-30 16:36:00,49.1,24.0,0.00,ENE,76,5.4,8.1,37,0.00,,---,0.00,VWS V14.00,2013-03-30 22:36:00,
2013-03-30 16:37:00,49.3,23.5,0.00,ESE,107,4.0,8.7,36,0.00,,---,0.00,VWS V14.00,2013-03-30 22:37:00,
2013-03-30 16:39:00,49.3,23.5,0.00,East,90,12.8,12.8,36,0.00,,---,0.00,VWS V14.00,2013-03-30 22:39:00,
2013-03-30 16:41:00,49.3,23.5,0.00,ESE,119,5.4,8.1,36,0.00,,---,0.00,VWS V14.00,2013-03-30 22:41:00,
2013-03-30 16:42:00,49.1,23.3,0.00,East,85,7.6,9.2,36,0.00,,---,0.00,VWS V14.00,2013-03-30 22:42:00,
2013-03-30 16:44:00,49.1,23.3,0.00,ESE,119,8.7,8.7,36,0.00,,---,0.00,VWS V14.00,2013-03-30 22:44:00,
2013-03-30 16:46:00,49.1,23.3,0.00,SE,131,6.3,6.3,36,0.00,,---,0.00,VWS V14.00,2013-03-30 22:46:00,
2013-03-30 16:48:00,48.9,23.2,0.00,East,89,5.4,6.3,36,0.00,,---,0.00,VWS V14.00,2013-03-30 22:48:00,
2013-03-30 16:49:00,48.9,23.2,0.00,ESE,121,4.9,5.4,36,0.00,,---,0.00,VWS V14.00,2013-03-30 22:49:00,
2013-03-30 16:51:00,48.9,23.2,0.00,ESE,118,4.0,5.8,36,0.00,,---,0.00,VWS V14.00,2013-03-30 22:51:00,
2013-03-30 16:53:00,48.9,23.2,0.00,ESE,115,4.0,4.0,36,0.00,,---,0.00,VWS V14.00,2013-03-30 22:53:00,
2013-03-30 16:54:00,48.9,23.2,0.00,NE,51,4.9,4.9,36,0.00,,---,0.00,VWS V14.00,2013-03-30 22:54:00,
2013-03-30 16:56:00,48.9,23.2,0.00,ESE,113,4.9,10.1,36,0.00,,---,0.00,VWS V14.00,2013-03-30 22:56:00,
2013-03-30 16:58:00,48.9,22.5,0.00,ENE,77,6.3,6.3,35,0.00,,---,0.00,VWS V14.00,2013-03-30 22:58:00,
2013-03-30 16:59:00,48.7,22.3,0.00,NE,51,5.8,5.8,35,0.00,,---,0.00,VWS V14.00,2013-03-30 22:59:00,
2013-03-30 17:01:00,48.7,22.3,0.00,ESE,111,4.0,4.0,35,0.00,,---,0.00,VWS V14.00,2013-03-30 23:01:00,
2013-03-30 17:03:00,48.7,22.3,0.00,SSE,149,2.7,6.7,35,0.00,,---,0.00,VWS V14.00,2013-03-30 23:03:00,
2013-03-30 17:04:00,48.7,22.3,0.00,SE,145,7.6,7.6,35,0.00,,---,0.00,VWS V14.00,2013-03-30 23:04:00,
2013-03-30 17:06:00,48.6,22.2,0.00,SSE,150,5.8,5.8,35,0.00,,---,0.00,VWS V14.00,2013-03-30 23:06:00,
2013-03-30 17:09:00,48.6,22.2,0.00,ESE,121,7.2,7.2,35,0.00,,---,0.00,VWS V14.00,2013-03-30 23:09:00,
2013-03-30 17:12:00,48.6,22.2,0.00,ESE,111,6.3,6.3,35,0.00,,---,0.00,VWS V14.00,2013-03-30 23:12:00,
2013-03-30 17:14:00,48.4,22.0,0.00,ESE,117,3.1,8.1,35,0.00,,---,0.00,VWS V14.00,2013-03-30 23:14:00,
2013-03-30 17:17:00,48.2,21.2,0.00,ESE,112,5.4,7.6,34,0.00,,---,0.00,VWS V14.00,2013-03-30 23:17:00,
2013-03-30 17:19:00,48.0,21.0,0.00,SE,127,3.6,5.8,34,0.00,,---,0.00,VWS V14.00,2013-03-30 23:19:00,
2013-03-30 17:22:00,48.0,21.7,0.00,East,100,8.7,10.1,35,0.00,,---,0.00,VWS V14.00,2013-03-30 23:22:00,
2013-03-30 17:24:00,47.8,21.5,0.00,ESE,113,5.4,5.8,35,0.00,,---,0.00,VWS V14.00,2013-03-30 23:24:00,
2013-03-30 17:25:00,47.8,21.5,0.00,ESE,105,4.0,6.3,35,0.00,,---,0.00,VWS V14.00,2013-03-30 23:25:00,
2013-03-30 17:27:00,47.8,21.5,0.00,East,80,7.6,8.3,35,0.00,,---,0.00,VWS V14.00,2013-03-30 23:27:00,
2013-03-30 17:28:00,47.8,21.5,0.00,ENE,75,5.8,8.3,35,0.00,,---,0.00,VWS V14.00,2013-03-30 23:28:00,
2013-03-30 17:29:00,47.7,21.4,0.00,ESE,102,7.6,11.0,35,0.00,,---,0.00,VWS V14.00,2013-03-30 23:29:00,
2013-03-30 17:30:00,47.7,21.4,0.00,ESE,113,7.6,8.1,35,0.00,,---,0.00,VWS V14.00,2013-03-30 23:30:00,
2013-03-30 17:32:00,47.5,20.5,0.00,SE,134,5.4,6.3,34,0.00,,---,0.00,VWS V14.00,2013-03-30 23:32:00,
2013-03-30 17:33:00,47.5,20.5,0.00,ESE,110,5.8,6.3,34,0.00,,---,0.00,VWS V14.00,2013-03-30 23:33:00,
2013-03-30 17:34:00,47.5,20.5,0.00,East,99,5.8,12.8,34,0.00,,---,0.00,VWS V14.00,2013-03-30 23:34:00,
2013-03-30 17:35:00,47.3,20.4,0.00,East,93,10.1,10.1,34,0.00,,---,0.00,VWS V14.00,2013-03-30 23:35:00,
2013-03-30 17:37:00,47.3,20.4,0.00,SE,125,10.1,10.1,34,0.00,,---,0.00,VWS V14.00,2013-03-30 23:37:00,
2013-03-30 17:38:00,47.3,20.4,0.00,East,89,8.3,10.1,34,0.00,,---,0.00,VWS V14.00,2013-03-30 23:38:00,
2013-03-30 17:39:00,47.1,20.2,0.00,ESE,113,5.4,6.3,34,0.00,,---,0.00,VWS V14.00,2013-03-30 23:39:00,
2013-03-30 17:40:00,46.9,20.0,0.00,SE,125,6.3,7.2,34,0.00,,---,0.00,VWS V14.00,2013-03-30 23:40:00,
2013-03-30 17:42:00,46.9,20.0,0.00,ESE,102,6.3,7.2,34,0.00,,---,0.00,VWS V14.00,2013-03-30 23:42:00,
2013-03-30 17:43:00,46.9,20.0,0.00,SE,125,3.6,3.6,34,0.00,,---,0.00,VWS V14.00,2013-03-30 23:43:00,
2013-03-30 17:44:00,46.8,19.9,0.00,East,87,6.3,6.3,34,0.00,,---,0.00,VWS V14.00,2013-03-30 23:44:00,
2013-03-30 17:46:00,46.8,19.9,0.00,East,101,8.3,8.3,34,0.00,,---,0.00,VWS V14.00,2013-03-30 23:46:00,
2013-03-30 17:48:00,46.6,19.7,0.00,ENE,74,4.9,5.4,34,0.00,,---,0.00,VWS V14.00,2013-03-30 23:48:00,
2013-03-30 17:49:00,46.6,19.7,0.00,ENE,63,10.5,10.5,34,0.00,,---,0.00,VWS V14.00,2013-03-30 23:49:00,
2013-03-30 17:51:00,46.4,20.2,0.00,SE,138,6.3,12.3,35,0.00,,---,0.00,VWS V14.00,2013-03-30 23:51:00,
2013-03-30 17:53:00,46.4,20.2,0.00,East,98,3.1,3.6,35,0.00,,---,0.00,VWS V14.00,2013-03-30 23:53:00,
2013-03-30 17:54:00,46.4,20.2,0.00,ENE,59,7.6,7.6,35,0.00,,---,0.00,VWS V14.00,2013-03-30 23:54:00,
2013-03-30 17:56:00,46.4,20.2,0.00,ENE,74,5.8,5.8,35,0.00,,---,0.00,VWS V14.00,2013-03-30 23:56:00,
2013-03-30 17:58:00,46.2,20.1,0.00,ESE,113,8.7,8.7,35,0.00,,---,0.00,VWS V14.00,2013-03-30 23:58:00,
2013-03-30 17:59:00,46.2,20.1,0.00,ESE,116,4.0,8.7,35,0.00,,---,0.00,VWS V14.00,2013-03-30 23:59:00,
2013-03-30 18:02:00,46.2,20.1,0.00,East,79,2.7,5.8,35,0.00,,---,0.00,VWS V14.00,2013-03-31 00:02:00,
2013-03-30 18:03:00,46.0,19.9,0.00,ESE,112,4.5,4.5,35,0.00,,---,0.00,VWS V14.00,2013-03-31 00:03:00,
2013-03-30 18:04:00,46.0,19.9,0.00,ENE,77,5.8,6.3,35,0.00,,---,0.00,VWS V14.00,2013-03-31 00:04:00,
2013-03-30 18:07:00,45.9,19.8,0.00,ESE,116,5.8,7.2,35,0.00,,---,0.00,VWS V14.00,2013-03-31 00:07:00,
2013-03-30 18:08:00,45.9,19.8,0.00,East,94,3.6,5.4,35,0.00,,---,0.00,VWS V14.00,2013-03-31 00:08:00,
2013-03-30 18:09:00,45.9,19.8,0.00,East,100,3.6,5.8,35,0.00,,---,0.00,VWS V14.00,2013-03-31 00:09:00,
2013-03-30 18:12:00,45.7,19.6,0.00,East,87,5.8,6.3,35,0.00,,---,0.00,VWS V14.00,2013-03-31 00:12:00,
2013-03-30 18:13:00,45.5,19.5,0.00,ESE,117,4.9,5.8,35,0.00,,---,0.00,VWS V14.00,2013-03-31 00:13:00,
2013-03-30 18:15:00,45.5,20.1,0.00,ESE,113,4.0,5.8,36,0.00,,---,0.00,VWS V14.00,2013-03-31 00:15:00,
2013-03-30 18:18:00,45.3,20.0,0.00,ESE,104,4.9,4.9,36,0.00,,---,0.00,VWS V14.00,2013-03-31 00:18:00,
2013-03-30 18:20:00,45.1,19.8,0.00,ESE,117,2.7,5.8,36,0.00,,---,0.00,VWS V14.00,2013-03-31 00:20:00,
2013-03-30 18:23:00,45.1,19.8,0.00,SE,141,3.1,5.4,36,0.00,,---,0.00,VWS V14.00,2013-03-31 00:23:00,
2013-03-30 18:24:00,45.1,19.8,0.00,ESE,121,5.8,5.8,36,0.00,,---,0.00,VWS V14.00,2013-03-31 00:24:00,
2013-03-30 18:25:00,45.0,19.6,0.00,ESE,114,4.0,4.0,36,0.00,,---,0.00,VWS V14.00,2013-03-31 00:25:00,
2013-03-30 18:28:00,44.8,19.5,0.00,SSW,210,3.1,5.4,36,0.00,,---,0.00,VWS V14.00,2013-03-31 00:28:00,
2013-03-30 18:29:00,44.6,19.3,0.00,SSE,152,3.6,3.6,36,0.00,,---,0.00,VWS V14.00,2013-03-31 00:29:00,
2013-03-30 18:30:00,44.6,19.3,0.00,ESE,116,6.3,7.2,36,0.00,,---,0.00,VWS V14.00,2013-03-31 00:30:00,
2013-03-30 18:33:00,44.4,19.1,0.00,ESE,122,4.0,4.0,36,0.00,,---,0.00,VWS V14.00,2013-03-31 00:33:00,
2013-03-30 18:34:00,44.4,19.1,0.00,SE,145,4.0,4.0,36,0.00,,---,0.00,VWS V14.00,2013-03-31 00:34:00,
2013-03-30 18:35:00,44.2,19.6,0.00,SE,133,5.8,5.8,37,0.00,,---,0.00,VWS V14.00,2013-03-31 00:35:00,
2013-03-30 18:38:00,44.2,19.6,0.00,East,100,5.8,6.3,37,0.00,,---,0.00,VWS V14.00,2013-03-31 00:38:00,
2013-03-30 18:39:00,44.1,19.5,0.00,East,91,4.0,6.3,37,0.00,,---,0.00,VWS V14.00,2013-03-31 00:39:00,
2013-03-30 18:40:00,44.1,19.5,0.00,East,89,5.8,5.8,37,0.00,,---,0.00,VWS V14.00,2013-03-31 00:40:00,
2013-03-30 18:43:00,43.7,19.1,0.00,ESE,113,5.4,8.1,37,0.00,,---,0.00,VWS V14.00,2013-03-31 00:43:00,
2013-03-30 18:44:00,43.7,19.1,0.00,East,80,6.3,8.3,37,0.00,,---,0.00,VWS V14.00,2013-03-31 00:44:00,
2013-03-30 18:45:00,43.7,19.1,0.00,ESE,113,5.8,5.8,37,0.00,,---,0.00,VWS V14.00,2013-03-31 00:45:00,
2013-03-30 18:48:00,43.5,19.0,0.00,ESE,104,6.3,6.3,37,0.00,,---,0.00,VWS V14.00,2013-03-31 00:48:00,
2013-03-30 18:49:00,43.5,19.0,0.00,ESE,110,3.6,6.3,37,0.00,,---,0.00,VWS V14.00,2013-03-31 00:49:00,
2013-03-30 18:50:00,43.3,18.8,0.00,East,101,4.9,4.9,37,0.00,,---,0.00,VWS V14.00,2013-03-31 00:50:00,
2013-03-30 18:53:00,43.2,18.7,0.00,ENE,68,5.4,5.4,37,0.00,,---,0.00,VWS V14.00,2013-03-31 00:53:00,
2013-03-30 18:54:00,43.2,18.7,0.00,ENE,68,5.4,5.4,37,0.00,,---,0.00,VWS V14.00,2013-03-31 00:54:00,
2013-03-30 18:55:00,43.0,18.5,0.00,East,95,2.7,2.7,37,0.00,,---,0.00,VWS V14.00,2013-03-31 00:55:00,
2013-03-30 18:58:00,42.8,18.4,0.00,ESE,111,4.9,4.9,37,0.00,,---,0.00,VWS V14.00,2013-03-31 00:58:00,
2013-03-30 18:59:00,42.8,18.4,0.00,East,91,3.6,4.9,37,0.00,,---,0.00,VWS V14.00,2013-03-31 00:59:00,
2013-03-30 19:00:00,42.8,18.4,0.00,ESE,116,2.7,2.7,37,0.00,,---,0.00,VWS V14.00,2013-03-31 01:00:00,
2013-03-30 19:03:00,42.4,18.6,0.00,SE,139,3.6,4.9,38,0.00,,---,0.00,VWS V14.00,2013-03-31 01:03:00,
2013-03-30 19:04:00,42.4,18.6,0.00,SSE,153,2.7,3.6,38,0.00,,---,0.00,VWS V14.00,2013-03-31 01:04:00,
2013-03-30 19:05:00,42.4,18.6,0.00,South,181,3.1,5.4,38,0.00,,---,0.00,VWS V14.00,2013-03-31 01:05:00,
2013-03-30 19:09:00,42.3,18.5,0.00,ESE,122,3.1,3.1,38,0.00,,---,0.00,VWS V14.00,2013-03-31 01:09:00,
2013-03-30 19:10:00,42.3,18.5,0.00,ESE,105,3.1,3.1,38,0.00,,---,0.00,VWS V14.00,2013-03-31 01:10:00,
2013-03-30 19:14:00,42.1,18.3,0.00,ESE,106,3.1,3.1,38,0.00,,---,0.00,VWS V14.00,2013-03-31 01:14:00,
2013-03-30 19:15:00,42.1,18.3,0.00,ESE,118,2.7,4.0,38,0.00,,---,0.00,VWS V14.00,2013-03-31 01:15:00,
2013-03-30 19:16:00,41.9,18.2,0.00,ESE,103,2.7,2.7,38,0.00,,---,0.00,VWS V14.00,2013-03-31 01:16:00,
2013-03-30 19:19:00,41.7,18.0,0.00,ESE,108,4.0,4.0,38,0.00,,---,0.00,VWS V14.00,2013-03-31 01:19:00,
2013-03-30 19:20:00,41.7,18.0,0.00,SE,141,2.7,4.0,38,0.00,,---,0.00,VWS V14.00,2013-03-31 01:20:00,
2013-03-30 19:21:00,41.7,18.0,0.00,South,173,2.7,4.0,38,0.00,,---,0.00,VWS V14.00,2013-03-31 01:21:00,
2013-03-30 19:24:00,41.5,17.8,0.00,ESE,117,4.0,5.8,38,0.00,,---,0.00,VWS V14.00,2013-03-31 01:24:00,
2013-03-30 19:25:00,41.4,17.7,0.00,ESE,108,3.6,5.4,38,0.00,,---,0.00,VWS V14.00,2013-03-31 01:25:00,
2013-03-30 19:26:00,41.4,17.7,0.00,ESE,114,2.7,5.4,38,0.00,,---,0.00,VWS V14.00,2013-03-31 01:26:00,
2013-03-30 19:29:00,41.2,17.5,0.00,ESE,104,2.2,2.2,38,0.00,,---,0.00,VWS V14.00,2013-03-31 01:29:00,
2013-03-30 19:30:00,41.2,17.5,0.00,SSE,147,0.0,0.0,38,0.00,,---,0.00,VWS V14.00,2013-03-31 01:30:00,
2013-03-30 19:32:00,41.0,17.4,0.00,ESE,110,4.0,5.8,38,0.00,,---,0.00,VWS V14.00,2013-03-31 01:32:00,
2013-03-30 19:34:00,41.0,17.4,0.00,SSE,152,4.0,4.9,38,0.00,,---,0.00,VWS V14.00,2013-03-31 01:34:00,
2013-03-30 19:35:00,40.8,17.8,0.00,ESE,111,3.1,5.4,39,0.00,,---,0.00,VWS V14.00,2013-03-31 01:35:00,
2013-03-30 19:37:00,40.8,17.8,0.00,SE,131,2.7,3.1,39,0.00,,---,0.00,VWS V14.00,2013-03-31 01:37:00,
2013-03-30 19:39:00,40.6,17.6,0.00,SSE,164,3.6,4.0,39,0.00,,---,0.00,VWS V14.00,2013-03-31 01:39:00,
2013-03-30 19:40:00,40.6,17.6,0.00,SE,127,3.6,5.8,39,0.00,,---,0.00,VWS V14.00,2013-03-31 01:40:00,
2013-03-30 19:42:00,40.5,17.5,0.00,SSE,163,2.7,2.7,39,0.00,,---,0.00,VWS V14.00,2013-03-31 01:42:00,
2013-03-30 19:44:00,40.5,17.5,0.00,ESE,115,3.6,5.4,39,0.00,,---,0.00,VWS V14.00,2013-03-31 01:44:00,
2013-03-30 19:46:00,40.3,17.3,0.00,ESE,110,2.2,2.2,39,0.00,,---,0.00,VWS V14.00,2013-03-31 01:46:00,
2013-03-30 19:47:00,40.3,17.3,0.00,SSE,163,4.0,4.0,39,0.00,,---,0.00,VWS V14.00,2013-03-31 01:47:00,
2013-03-30 19:49:00,40.1,17.1,0.00,SSW,210,0.0,3.1,39,0.00,,---,0.00,VWS V14.00,2013-03-31 01:49:00,
2013-03-30 19:51:00,40.1,17.1,0.00,SE,143,0.0,0.0,39,0.00,,---,0.00,VWS V14.00,2013-03-31 01:51:00,
2013-03-30 19:52:00,40.1,17.1,0.00,ESE,111,0.0,2.2,39,0.00,,---,0.00,VWS V14.00,2013-03-31 01:52:00,
2013-03-30 19:54:00,39.9,17.0,0.00,SSW,199,0.0,0.0,39,0.00,,---,0.00,VWS V14.00,2013-03-31 01:54:00,
2013-03-30 19:55:00,39.9,17.0,0.00,SSW,197,0.0,0.0,39,0.00,,---,0.00,VWS V14.00,2013-03-31 01:55:00,
2013-03-30 19:56:00,39.9,17.0,0.00,ESE,115,3.6,4.0,39,0.00,,---,0.00,VWS V14.00,2013-03-31 01:56:00,
2013-03-30 19:57:00,39.9,17.0,0.00,ESE,115,0.0,0.0,39,0.00,,---,0.00,VWS V14.00,2013-03-31 01:57:00,
2013-03-30 19:59:00,39.7,16.8,0.00,ESE,115,0.0,0.0,39,0.00,,---,0.00,VWS V14.00,2013-03-31 01:59:00,
2013-03-30 20:00:00,39.7,16.8,0.00,ESE,115,0.0,0.0,39,0.00,,---,0.00,VWS V14.00,2013-03-31 02:00:00,
2013-03-30 20:01:00,39.7,16.8,0.00,ESE,104,0.0,2.7,39,0.00,,---,0.00,VWS V14.00,2013-03-31 02:01:00,
2013-03-30 20:02:00,39.7,16.8,0.00,ESE,104,0.0,0.0,39,0.00,,---,0.00,VWS V14.00,2013-03-31 02:02:00,
2013-03-30 20:04:00,39.6,16.7,0.00,ESE,104,0.0,0.0,39,0.00,,---,0.00,VWS V14.00,2013-03-31 02:04:00,
2013-03-30 20:05:00,39.6,16.7,0.00,ESE,104,0.0,0.0,39,0.00,,---,0.00,VWS V14.00,2013-03-31 02:05:00,
2013-03-30 20:07:00,39.4,16.5,0.00,South,173,0.0,0.0,39,0.00,,---,0.00,VWS V14.00,2013-03-31 02:07:00,
2013-03-30 20:08:00,39.4,16.5,0.00,SSW,210,0.0,0.0,39,0.00,,---,0.00,VWS V14.00,2013-03-31 02:08:00,
2013-03-30 20:09:00,39.4,16.5,0.00,SSW,212,0.0,2.7,39,0.00,,---,0.00,VWS V14.00,2013-03-31 02:09:00,
2013-03-30 20:10:00,39.2,16.3,0.00,SW,216,0.0,0.0,39,0.00,,---,0.00,VWS V14.00,2013-03-31 02:10:00,
2013-03-30 20:12:00,39.2,16.3,0.00,WNW,289,0.0,0.0,39,0.00,,---,0.00,VWS V14.00,2013-03-31 02:12:00,
2013-03-30 20:13:00,39.0,16.8,0.00,WSW,239,0.0,0.0,40,0.00,,---,0.00,VWS V14.00,2013-03-31 02:13:00,
2013-03-30 20:15:00,39.0,16.8,0.00,SW,235,0.0,0.0,40,0.00,,---,0.00,VWS V14.00,2013-03-31 02:15:00,
2013-03-30 20:16:00,38.8,16.6,0.00,SW,235,0.0,0.0,40,0.00,,---,0.00,VWS V14.00,2013-03-31 02:16:00,
2013-03-30 20:17:00,38.8,16.6,0.00,SW,233,0.0,0.0,40,0.00,,---,0.00,VWS V14.00,2013-03-31 02:17:00,
2013-03-30 20:18:00,38.8,17.2,0.00,SW,235,2.2,2.2,41,0.00,,---,0.00,VWS V14.00,2013-03-31 02:18:00,
2013-03-30 20:20:00,38.7,17.0,0.00,West,264,2.7,2.7,41,0.00,,---,0.00,VWS V14.00,2013-03-31 02:20:00,
2013-03-30 20:21:00,38.5,17.4,0.00,SSW,199,3.1,3.6,42,0.00,,---,0.00,VWS V14.00,2013-03-31 02:21:00,
2013-03-30 20:23:00,38.5,17.9,0.00,SW,228,3.6,3.6,43,0.00,,---,0.00,VWS V14.00,2013-03-31 02:23:00,
2013-03-30 20:24:00,38.3,18.3,0.00,SSW,204,4.9,4.9,44,0.00,,---,0.00,VWS V14.00,2013-03-31 02:24:00,
2013-03-30 20:25:00,38.1,19.2,0.00,SSW,197,2.7,3.1,46,0.00,,---,0.00,VWS V14.00,2013-03-31 02:25:00,
2013-03-30 20:28:00,37.9,20.0,0.00,SSW,201,6.3,6.3,48,0.00,,---,0.00,VWS V14.00,2013-03-31 02:28:00,
2013-03-30 20:29:00,37.9,20.0,0.00,SSW,208,0.0,6.3,48,0.00,,---,0.00,VWS V14.00,2013-03-31 02:29:00,
2013-03-30 20:30:00,37.9,20.5,0.00,SW,214,0.0,0.0,49,0.00,,---,0.00,VWS V14.00,2013-03-31 02:30:00,
2013-03-30 20:33:00,37.6,20.2,0.00,SSE,152,0.0,0.0,49,0.00,,---,0.00,VWS V14.00,2013-03-31 02:33:00,
2013-03-30 20:34:00,37.6,20.2,0.00,SSE,162,0.0,0.0,49,0.00,,---,0.00,VWS V14.00,2013-03-31 02:34:00,
2013-03-30 20:36:00,37.6,20.2,0.00,SSE,162,0.0,0.0,49,0.00,,---,0.00,VWS V14.00,2013-03-31 02:36:00,
2013-03-30 20:38:00,37.6,19.7,0.00,SSE,164,0.0,0.0,48,0.00,,---,0.00,VWS V14.00,2013-03-31 02:38:00,
2013-03-30 20:39:00,37.6,19.7,0.00,SSE,164,0.0,0.0,48,0.00,,---,0.00,VWS V14.00,2013-03-31 02:39:00,
2013-03-30 20:41:00,37.6,19.2,0.00,SSE,164,0.0,0.0,47,0.00,,---,0.00,VWS V14.00,2013-03-31 02:41:00,
2013-03-30 20:43:00,37.4,19.5,0.00,SSE,164,0.0,0.0,48,0.00,,---,0.00,VWS V14.00,2013-03-31 02:43:00,
2013-03-30 20:44:00,37.4,19.0,0.00,SSE,164,0.0,0.0,47,0.00,,---,0.00,VWS V14.00,2013-03-31 02:44:00,
2013-03-30 20:45:00,37.4,19.0,0.00,SSE,164,0.0,0.0,47,0.00,,---,0.00,VWS V14.00,2013-03-31 02:45:00,
2013-03-30 20:46:00,37.4,18.5,0.00,SSE,164,0.0,0.0,46,0.00,,---,0.00,VWS V14.00,2013-03-31 02:46:00,
2013-03-30 20:48:00,37.4,18.0,0.00,SSE,164,0.0,0.0,45,0.00,,---,0.00,VWS V14.00,2013-03-31 02:48:00,
2013-03-30 20:49:00,37.4,18.0,0.00,SSE,164,0.0,0.0,45,0.00,,---,0.00,VWS V14.00,2013-03-31 02:49:00,
2013-03-30 20:50:00,37.4,18.0,0.00,SSE,165,0.0,0.0,45,0.00,,---,0.00,VWS V14.00,2013-03-31 02:50:00,
2013-03-30 20:51:00,37.4,18.0,0.00,SSE,165,0.0,0.0,45,0.00,,---,0.00,VWS V14.00,2013-03-31 02:51:00,
2013-03-30 20:53:00,37.2,17.9,0.00,SSE,164,0.0,0.0,45,0.00,,---,0.00,VWS V14.00,2013-03-31 02:53:00,
2013-03-30 20:54:00,37.2,17.9,0.00,SSE,164,0.0,0.0,45,0.00,,---,0.00,VWS V14.00,2013-03-31 02:54:00,
2013-03-30 20:55:00,37.2,17.9,0.00,SSE,164,0.0,0.0,45,0.00,,---,0.00,VWS V14.00,2013-03-31 02:55:00,
2013-03-30 20:56:00,37.2,17.9,0.00,SSE,164,0.0,0.0,45,0.00,,---,0.00,VWS V14.00,2013-03-31 02:56:00,
2013-03-30 20:58:00,37.0,17.7,0.00,SSE,164,0.0,0.0,45,0.00,,---,0.00,VWS V14.00,2013-03-31 02:58:00,
2013-03-30 20:59:00,37.0,17.7,0.00,SSE,165,0.0,0.0,45,0.00,,---,0.00,VWS V14.00,2013-03-31 02:59:00,
2013-03-30 21:00:00,37.0,17.7,0.00,SSE,164,0.0,0.0,45,0.00,,---,0.00,VWS V14.00,2013-03-31 03:00:00,
2013-03-30 21:01:00,37.0,17.7,0.00,SSE,164,0.0,0.0,45,0.00,,---,0.00,VWS V14.00,2013-03-31 03:01:00,
2013-03-30 21:03:00,36.9,17.5,0.00,SSE,164,0.0,0.0,45,0.00,,---,0.00,VWS V14.00,2013-03-31 03:03:00,
2013-03-30 21:04:00,36.9,17.5,0.00,SSE,164,0.0,0.0,45,0.00,,---,0.00,VWS V14.00,2013-03-31 03:04:00,
2013-03-30 21:05:00,36.9,17.5,0.00,SSE,164,0.0,0.0,45,0.00,,---,0.00,VWS V14.00,2013-03-31 03:05:00,
2013-03-30 21:06:00,36.7,17.4,0.00,SSE,164,0.0,0.0,45,0.00,,---,0.00,VWS V14.00,2013-03-31 03:06:00,
2013-03-30 21:09:00,36.7,17.4,0.00,SSE,164,0.0,0.0,45,0.00,,---,0.00,VWS V14.00,2013-03-31 03:09:00,
2013-03-30 21:10:00,36.5,17.7,0.00,South,169,0.0,0.0,46,0.00,,---,0.00,VWS V14.00,2013-03-31 03:10:00,
2013-03-30 21:11:00,36.5,17.7,0.00,West,274,0.0,0.0,46,0.00,,---,0.00,VWS V14.00,2013-03-31 03:11:00,
2013-03-30 21:14:00,36.3,18.0,0.00,ESE,113,0.0,2.2,47,0.00,,---,0.00,VWS V14.00,2013-03-31 03:14:00,
2013-03-30 21:15:00,36.3,17.5,0.00,ESE,106,0.0,0.0,46,0.00,,---,0.00,VWS V14.00,2013-03-31 03:15:00,
2013-03-30 21:17:00,36.1,17.9,0.00,ESE,112,0.0,0.0,47,0.00,,---,0.00,VWS V14.00,2013-03-31 03:17:00,
2013-03-30 21:19:00,36.1,17.9,0.00,WSW,244,0.0,0.0,47,0.00,,---,0.00,VWS V14.00,2013-03-31 03:19:00,
2013-03-30 21:20:00,36.1,17.9,0.00,West,276,0.0,0.0,47,0.00,,---,0.00,VWS V14.00,2013-03-31 03:20:00,
2013-03-30 21:22:00,36.0,18.2,0.00,West,260,0.0,2.7,48,0.00,,---,0.00,VWS V14.00,2013-03-31 03:22:00,
2013-03-30 21:24:00,35.8,18.0,0.00,WSW,251,2.2,2.7,48,0.00,,---,0.00,VWS V14.00,2013-03-31 03:24:00,
2013-03-30 21:25:00,35.8,18.0,0.00,WSW,251,0.0,2.7,48,0.00,,---,0.00,VWS V14.00,2013-03-31 03:25:00,
2013-03-30 21:27:00,35.6,18.8,0.00,SW,229,0.0,0.0,50,0.00,,---,0.00,VWS V14.00,2013-03-31 03:27:00,
2013-03-30 21:29:00,35.4,19.1,0.00,SW,232,0.0,0.0,51,0.00,,---,0.00,VWS V14.00,2013-03-31 03:29:00,
2013-03-30 21:30:00,35.4,19.1,0.00,SW,231,0.0,0.0,51,0.00,,---,0.00,VWS V14.00,2013-03-31 03:30:00,
2013-03-30 21:32:00,35.2,18.5,0.00,SW,230,0.0,0.0,50,0.00,,---,0.00,VWS V14.00,2013-03-31 03:32:00,
2013-03-30 21:34:00,35.2,18.9,0.00,SW,230,0.0,0.0,51,0.00,,---,0.00,VWS V14.00,2013-03-31 03:34:00,
2013-03-30 21:35:00,35.2,18.9,0.00,SW,226,0.0,0.0,51,0.00,,---,0.00,VWS V14.00,2013-03-31 03:35:00,
2013-03-30 21:37:00,35.1,18.8,0.00,SW,227,0.0,0.0,51,0.00,,---,0.00,VWS V14.00,2013-03-31 03:37:00,
2013-03-30 21:39:00,34.9,18.6,0.00,SW,228,0.0,0.0,51,0.00,,---,0.00,VWS V14.00,2013-03-31 03:39:00,
2013-03-30 21:40:00,34.9,18.6,0.00,SW,228,0.0,0.0,51,0.00,,---,0.00,VWS V14.00,2013-03-31 03:40:00,
2013-03-30 21:41:00,34.9,18.6,0.00,SW,227,0.0,0.0,51,0.00,,---,0.00,VWS V14.00,2013-03-31 03:41:00,
2013-03-30 21:42:00,34.9,18.1,0.00,SW,227,0.0,0.0,50,0.00,,---,0.00,VWS V14.00,2013-03-31 03:42:00,
2013-03-30 21:44:00,34.9,18.1,0.00,SW,227,0.0,0.0,50,0.00,,---,0.00,VWS V14.00,2013-03-31 03:44:00,
2013-03-30 21:45:00,34.9,18.6,0.00,SW,227,0.0,0.0,51,0.00,,---,0.00,VWS V14.00,2013-03-31 03:45:00,
2013-03-30 21:46:00,34.9,18.6,0.00,SW,227,0.0,0.0,51,0.00,,---,0.00,VWS V14.00,2013-03-31 03:46:00,
2013-03-30 21:47:00,34.9,18.6,0.00,SW,227,0.0,0.0,51,0.00,,---,0.00,VWS V14.00,2013-03-31 03:47:00,
2013-03-30 21:49:00,34.7,18.4,0.00,SW,227,0.0,0.0,51,0.00,,---,0.00,VWS V14.00,2013-03-31 03:49:00,
2013-03-30 21:50:00,34.7,18.4,0.00,SW,227,0.0,0.0,51,0.00,,---,0.00,VWS V14.00,2013-03-31 03:50:00,
2013-03-30 21:51:00,34.7,18.4,0.00,SW,227,0.0,0.0,51,0.00,,---,0.00,VWS V14.00,2013-03-31 03:51:00,
2013-03-30 21:52:00,34.5,17.8,0.00,SW,227,0.0,0.0,50,0.00,,---,0.00,VWS V14.00,2013-03-31 03:52:00,
2013-03-30 21:54:00,34.5,17.8,0.00,SW,224,0.0,0.0,50,0.00,,---,0.00,VWS V14.00,2013-03-31 03:54:00,
2013-03-30 21:55:00,34.5,17.8,0.00,SW,227,0.0,0.0,50,0.00,,---,0.00,VWS V14.00,2013-03-31 03:55:00,
2013-03-30 21:56:00,34.5,18.3,0.00,SW,222,0.0,0.0,51,0.00,,---,0.00,VWS V14.00,2013-03-31 03:56:00,
2013-03-30 21:58:00,34.5,18.3,0.00,SW,227,0.0,0.0,51,0.00,,---,0.00,VWS V14.00,2013-03-31 03:58:00,
2013-03-30 21:59:00,34.3,18.1,0.00,SW,228,0.0,0.0,51,0.00,,---,0.00,VWS V14.00,2013-03-31 03:59:00,
2013-03-30 22:00:00,34.3,18.1,0.00,SW,228,0.0,0.0,51,0.00,,---,0.00,VWS V14.00,2013-03-31 04:00:00,
2013-03-30 22:05:00,34.3,17.6,0.00,SW,227,0.0,0.0,50,0.00,,---,0.00,VWS V14.00,2013-03-31 04:05:00,
2013-03-30 22:10:00,34.2,17.9,0.00,SW,227,0.0,0.0,51,0.00,,---,0.00,VWS V14.00,2013-03-31 04:10:00,
2013-03-30 22:15:00,34.0,17.8,0.00,SW,227,0.0,0.0,51,0.00,,---,0.00,VWS V14.00,2013-03-31 04:15:00,
2013-03-30 22:17:00,34.0,18.2,0.00,SSE,166,2.7,3.1,52,0.00,,---,0.00,VWS V14.00,2013-03-31 04:17:00,
2013-03-30 22:20:00,33.8,18.5,0.00,SSE,164,0.0,0.0,53,0.00,,---,0.00,VWS V14.00,2013-03-31 04:20:00,
2013-03-30 22:22:00,33.8,18.9,0.00,SSE,166,0.0,0.0,54,0.00,,---,0.00,VWS V14.00,2013-03-31 04:22:00,
2013-03-30 22:25:00,33.8,19.4,0.00,SE,143,3.1,3.1,55,0.00,,---,0.00,VWS V14.00,2013-03-31 04:25:00,
2013-03-30 22:27:00,33.8,18.9,0.00,ESE,119,2.7,3.1,54,0.00,,---,0.00,VWS V14.00,2013-03-31 04:27:00,
2013-03-30 22:30:00,33.8,18.9,0.00,ESE,119,0.0,0.0,54,0.00,,---,0.00,VWS V14.00,2013-03-31 04:30:00,
2013-03-30 22:32:00,33.6,19.2,0.00,ESE,119,0.0,0.0,55,0.00,,---,0.00,VWS V14.00,2013-03-31 04:32:00,
2013-03-30 22:35:00,33.6,19.2,0.00,ESE,119,0.0,0.0,55,0.00,,---,0.00,VWS V14.00,2013-03-31 04:35:00,
2013-03-30 22:37:00,33.6,19.6,0.00,ESE,119,0.0,2.7,56,0.00,,---,0.00,VWS V14.00,2013-03-31 04:37:00,
2013-03-30 22:40:00,33.4,19.4,0.00,SSE,151,0.0,0.0,56,0.00,,---,0.00,VWS V14.00,2013-03-31 04:40:00,
2013-03-30 22:41:00,33.4,19.9,0.00,SSE,158,0.0,0.0,57,0.00,,---,0.00,VWS V14.00,2013-03-31 04:41:00,
2013-03-30 22:43:00,33.4,19.9,0.00,SSE,158,0.0,0.0,57,0.00,,---,0.00,VWS V14.00,2013-03-31 04:43:00,
2013-03-30 22:45:00,33.4,19.9,0.00,SSE,158,0.0,0.0,57,0.00,,---,0.00,VWS V14.00,2013-03-31 04:45:00,
2013-03-30 22:47:00,33.3,19.7,0.00,SSE,159,0.0,0.0,57,0.00,,---,0.00,VWS V14.00,2013-03-31 04:47:00,
2013-03-30 22:48:00,33.3,19.7,0.00,SSE,159,0.0,0.0,57,0.00,,---,0.00,VWS V14.00,2013-03-31 04:48:00,
2013-03-30 22:50:00,33.3,20.1,0.00,SSE,159,0.0,0.0,58,0.00,,---,0.00,VWS V14.00,2013-03-31 04:50:00,
2013-03-30 22:52:00,33.3,20.1,0.00,SSE,159,0.0,0.0,58,0.00,,---,0.00,VWS V14.00,2013-03-31 04:52:00,
2013-03-30 22:53:00,33.3,20.1,0.00,SSE,159,0.0,0.0,58,0.00,,---,0.00,VWS V14.00,2013-03-31 04:53:00,
2013-03-30 22:55:00,33.3,20.1,0.00,SSE,159,0.0,0.0,58,0.00,,---,0.00,VWS V14.00,2013-03-31 04:55:00,
2013-03-30 22:57:00,33.3,20.1,0.00,SSE,159,0.0,0.0,58,0.00,,---,0.00,VWS V14.00,2013-03-31 04:57:00,
2013-03-30 22:58:00,33.3,20.1,0.00,SSE,159,0.0,0.0,58,0.00,,---,0.00,VWS V14.00,2013-03-31 04:58:00,
2013-03-30 23:00:00,33.1,19.9,0.00,WSW,258,0.0,0.0,58,0.00,,---,0.00,VWS V14.00,2013-03-31 05:00:00,
2013-03-30 23:01:00,33.1,19.9,0.00,WSW,257,0.0,0.0,58,0.00,,---,0.00,VWS V14.00,2013-03-31 05:01:00,
2013-03-30 23:02:00,33.1,19.9,0.00,WSW,253,0.0,0.0,58,0.00,,---,0.00,VWS V14.00,2013-03-31 05:02:00,
2013-03-30 23:03:00,33.1,20.3,0.00,WSW,258,0.0,0.0,59,0.00,,---,0.00,VWS V14.00,2013-03-31 05:03:00,
2013-03-30 23:05:00,33.1,19.9,0.00,WSW,258,0.0,0.0,58,0.00,,---,0.00,VWS V14.00,2013-03-31 05:05:00,
2013-03-30 23:06:00,33.1,19.9,0.00,West,259,0.0,0.0,58,0.00,,---,0.00,VWS V14.00,2013-03-31 05:06:00,
2013-03-30 23:07:00,33.1,19.5,0.00,West,259,0.0,0.0,57,0.00,,---,0.00,VWS V14.00,2013-03-31 05:07:00,
2013-03-30 23:08:00,33.1,19.1,0.00,West,259,0.0,0.0,56,0.00,,---,0.00,VWS V14.00,2013-03-31 05:08:00,
2013-03-30 23:11:00,33.1,19.1,0.00,South,182,0.0,0.0,56,0.00,,---,0.00,VWS V14.00,2013-03-31 05:11:00,
2013-03-30 23:12:00,32.9,18.9,0.00,South,182,0.0,0.0,56,0.00,,---,0.00,VWS V14.00,2013-03-31 05:12:00,
2013-03-30 23:13:00,32.9,18.9,0.00,South,182,0.0,0.0,56,0.00,,---,0.00,VWS V14.00,2013-03-31 05:13:00,
2013-03-30 23:16:00,32.9,18.9,0.00,South,182,0.0,0.0,56,0.00,,---,0.00,VWS V14.00,2013-03-31 05:16:00,
2013-03-30 23:17:00,32.9,18.9,0.00,South,182,0.0,0.0,56,0.00,,---,0.00,VWS V14.00,2013-03-31 05:17:00,
2013-03-30 23:18:00,32.7,18.4,0.00,South,181,0.0,0.0,55,0.00,,---,0.00,VWS V14.00,2013-03-31 05:18:00,
2013-03-30 23:21:00,32.7,18.4,0.00,South,183,0.0,0.0,55,0.00,,---,0.00,VWS V14.00,2013-03-31 05:21:00,
2013-03-30 23:22:00,32.7,18.8,0.00,South,183,0.0,0.0,56,0.00,,---,0.00,VWS V14.00,2013-03-31 05:22:00,
2013-03-30 23:23:00,32.7,19.2,0.00,South,183,0.0,0.0,57,0.00,,---,0.00,VWS V14.00,2013-03-31 05:23:00,
2013-03-30 23:26:00,32.5,19.0,0.00,South,177,0.0,0.0,57,0.00,,---,0.00,VWS V14.00,2013-03-31 05:26:00,
2013-03-30 23:27:00,32.5,19.0,0.00,South,183,0.0,0.0,57,0.00,,---,0.00,VWS V14.00,2013-03-31 05:27:00,
2013-03-30 23:28:00,32.5,19.0,0.00,South,178,0.0,0.0,57,0.00,,---,0.00,VWS V14.00,2013-03-31 05:28:00,
2013-03-30 23:31:00,32.4,18.8,0.00,South,183,0.0,0.0,57,0.00,,---,0.00,VWS V14.00,2013-03-31 05:31:00,
2013-03-30 23:32:00,32.4,18.8,0.00,South,183,0.0,0.0,57,0.00,,---,0.00,VWS V14.00,2013-03-31 05:32:00,
2013-03-30 23:33:00,32.4,18.8,0.00,South,183,0.0,0.0,57,0.00,,---,0.00,VWS V14.00,2013-03-31 05:33:00,
2013-03-30 23:36:00,32.4,18.8,0.00,South,183,0.0,0.0,57,0.00,,---,0.00,VWS V14.00,2013-03-31 05:36:00,
2013-03-30 23:37:00,32.2,18.3,0.00,South,183,0.0,0.0,56,0.00,,---,0.00,VWS V14.00,2013-03-31 05:37:00,
2013-03-30 23:38:00,32.2,18.3,0.00,South,183,0.0,0.0,56,0.00,,---,0.00,VWS V14.00,2013-03-31 05:38:00,
2013-03-30 23:39:00,32.2,17.8,0.00,South,183,0.0,0.0,55,0.00,,---,0.00,VWS V14.00,2013-03-31 05:39:00,
2013-03-30 23:41:00,32.2,17.8,0.00,South,183,0.0,0.0,55,0.00,,---,0.00,VWS V14.00,2013-03-31 05:41:00,
2013-03-30 23:42:00,32.2,18.3,0.00,South,183,0.0,0.0,56,0.00,,---,0.00,VWS V14.00,2013-03-31 05:42:00,
2013-03-30 23:43:00,32.2,18.3,0.00,South,183,0.0,0.0,56,0.00,,---,0.00,VWS V14.00,2013-03-31 05:43:00,
2013-03-30 23:44:00,32.2,18.3,0.00,South,183,0.0,0.0,56,0.00,,---,0.00,VWS V14.00,2013-03-31 05:44:00,
2013-03-30 23:47:00,32.0,18.1,0.00,South,183,0.0,0.0,56,0.00,,---,0.00,VWS V14.00,2013-03-31 05:47:00,
2013-03-30 23:48:00,32.0,18.1,0.00,South,183,0.0,0.0,56,0.00,,---,0.00,VWS V14.00,2013-03-31 05:48:00,
2013-03-30 23:49:00,32.0,18.5,0.00,South,183,0.0,0.0,57,0.00,,---,0.00,VWS V14.00,2013-03-31 05:49:00,
2013-03-30 23:52:00,31.8,18.3,0.00,South,183,0.0,0.0,57,0.00,,---,0.00,VWS V14.00,2013-03-31 05:52:00,
2013-03-30 23:53:00,31.8,18.7,0.00,South,183,0.0,0.0,58,0.00,,---,0.00,VWS V14.00,2013-03-31 05:53:00,
2013-03-30 23:54:00,31.8,18.7,0.00,South,183,0.0,0.0,58,0.00,,---,0.00,VWS V14.00,2013-03-31 05:54:00,
2013-03-30 23:57:00,31.6,19.0,0.00,South,183,0.0,0.0,59,0.00,,---,0.00,VWS V14.00,2013-03-31 05:57:00,
2013-03-30 23:58:00,31.6,19.0,0.00,South,183,0.0,0.0,59,0.00,,---,0.00,VWS V14.00,2013-03-31 05:58:00,
2013-03-30 23:59:00,31.6,19.0,0.00,South,180,0.0,0.0,59,0.00,,---,0.00,VWS V14.00,2013-03-31 05:59:00,